Time,TemperatureF,DewpointF,PressureIn,WindDirection,WindDirectionDegrees,WindSpeedMPH,WindSpeedGustMPH,Humidity,HourlyPrecipIn,Conditions,Clouds,dailyrainin,SoftwareType,DateUTC
2013-05-30 00:00:00,50.7,48.2,29.91,SSE,167,0.0,2.0,91,0.00,,OVC120,0.13,VWS V14.01,2013-05-30 07:00:00,
2013-05-30 00:01:00,50.7,48.2,29.91,SSE,167,0.0,2.0,91,0.00,,OVC060,0.13,VWS V14.01,2013-05-30 07:01:00,
2013-05-30 00:04:00,50.7,48.2,29.91,SSE,167,0.0,0.0,91,0.00,,OVC060,0.00,VWS V14.01,2013-05-30 07:04:00,
2013-05-30 00:05:00,50.7,48.2,29.91,SSE,167,0.0,0.0,91,0.01,,OVC060,0.01,VWS V14.01,2013-05-30 07:05:00,
2013-05-30 00:07:00,50.7,48.2,29.91,SSE,167,0.0,0.0,91,0.01,,OVC060,0.01,VWS V14.01,2013-05-30 07:07:00,
2013-05-30 00:08:00,50.7,48.2,29.91,SSE,167,0.0,0.0,91,0.01,,OVC060,0.01,VWS V14.01,2013-05-30 07:08:00,
2013-05-30 00:11:00,50.5,48.0,29.91,SSE,167,0.0,1.0,91,0.01,,OVC060,0.01,VWS V14.01,2013-05-30 07:11:00,
2013-05-30 00:13:00,50.5,48.0,29.91,SSE,167,0.0,0.0,91,0.01,,OVC060,0.01,VWS V14.01,2013-05-30 07:13:00,
2013-05-30 00:16:00,50.5,48.0,29.91,SSE,167,0.0,0.0,91,0.01,,OVC060,0.01,VWS V14.01,2013-05-30 07:16:00,
2013-05-30 00:17:00,50.5,48.0,29.91,SSE,167,1.0,2.0,91,0.01,,OVC060,0.01,VWS V14.01,2013-05-30 07:17:00,
2013-05-30 00:21:00,50.4,47.9,29.91,SSW,196,1.0,5.0,91,0.01,,OVC060,0.01,VWS V14.01,2013-05-30 07:21:00,
2013-05-30 00:22:00,50.4,47.9,29.91,SSW,196,0.0,5.0,91,0.01,,OVC060,0.01,VWS V14.01,2013-05-30 07:22:00,
2013-05-30 00:23:00,50.4,47.9,29.91,SSW,196,0.0,5.0,91,0.01,,OVC060,0.01,VWS V14.01,2013-05-30 07:23:00,
2013-05-30 00:26:00,50.2,47.7,29.91,SSW,196,2.0,2.0,91,0.01,,OVC060,0.01,VWS V14.01,2013-05-30 07:26:00,
2013-05-30 00:28:00,50.2,47.7,29.91,South,189,0.0,6.0,91,0.01,,OVC060,0.01,VWS V14.01,2013-05-30 07:28:00,
2013-05-30 00:29:00,50.2,47.7,29.91,South,189,1.0,6.0,91,0.01,,OVC060,0.01,VWS V14.01,2013-05-30 07:29:00,
2013-05-30 00:32:00,50.1,47.6,29.91,SSW,206,0.0,3.0,91,0.01,,OVC060,0.01,VWS V14.01,2013-05-30 07:32:00,
2013-05-30 00:33:00,50.1,47.6,29.91,SSW,206,0.0,3.0,91,0.01,,OVC060,0.01,VWS V14.01,2013-05-30 07:33:00,
2013-05-30 00:34:00,50.1,47.6,29.91,SSW,206,0.0,3.0,91,0.01,,OVC060,0.01,VWS V14.01,2013-05-30 07:34:00,
2013-05-30 00:36:00,50.1,47.6,29.91,SW,216,0.0,3.0,91,0.01,,OVC060,0.01,VWS V14.01,2013-05-30 07:36:00,
2013-05-30 00:37:00,50.1,47.6,29.91,SW,216,1.0,1.0,91,0.01,,OVC060,0.01,VWS V14.01,2013-05-30 07:37:00,
2013-05-30 00:38:00,49.9,47.7,29.91,SW,216,0.0,1.0,92,0.01,,OVC060,0.01,VWS V14.01,2013-05-30 07:38:00,
2013-05-30 00:41:00,49.9,47.7,29.91,SSW,210,0.0,0.0,92,0.01,,OVC060,0.01,VWS V14.01,2013-05-30 07:41:00,
2013-05-30 00:44:00,49.9,47.7,29.91,ESE,113,1.0,2.0,92,0.01,,OVC060,0.01,VWS V14.01,2013-05-30 07:44:00,
2013-05-30 00:46:00,49.9,47.7,29.92,ESE,113,0.0,2.0,92,0.01,,OVC060,0.01,VWS V14.01,2013-05-30 07:46:00,
2013-05-30 00:47:00,49.9,47.7,29.92,ESE,113,0.0,0.0,92,0.01,,OVC060,0.01,VWS V14.01,2013-05-30 07:47:00,
2013-05-30 00:49:00,49.8,47.6,29.92,ESE,113,0.0,0.0,92,0.01,,OVC060,0.01,VWS V14.01,2013-05-30 07:49:00,
2013-05-30 00:52:00,49.8,47.6,29.92,ESE,113,0.0,0.0,92,0.01,,OVC060,0.01,VWS V14.01,2013-05-30 07:52:00,
2013-05-30 00:55:00,49.6,47.4,29.92,SSE,160,1.0,10.0,92,0.01,,OVC060,0.01,VWS V14.01,2013-05-30 07:55:00,
2013-05-30 00:56:00,49.6,47.4,29.92,SSE,168,0.0,10.0,92,0.01,,OVC060,0.01,VWS V14.01,2013-05-30 07:56:00,
2013-05-30 00:57:00,49.6,47.4,29.92,SSE,168,3.0,3.0,92,0.01,,OVC060,0.01,VWS V14.01,2013-05-30 07:57:00,
2013-05-30 00:59:00,49.5,47.3,29.92,SSW,208,17.0,17.0,92,0.01,,OVC060,0.01,VWS V14.01,2013-05-30 07:59:00,
2013-05-30 01:01:00,49.4,47.2,29.92,SW,227,7.0,17.0,92,0.01,,OVC060,0.01,VWS V14.01,2013-05-30 08:01:00,
2013-05-30 01:03:00,49.4,46.9,29.92,SSW,196,3.0,7.0,91,0.01,,OVC060,0.01,VWS V14.01,2013-05-30 08:03:00,
2013-05-30 01:06:00,49.2,46.7,29.92,SW,222,3.0,7.0,91,0.01,,OVC060,0.01,VWS V14.01,2013-05-30 08:06:00,
2013-05-30 01:08:00,49.2,46.7,29.92,West,274,0.0,5.0,91,0.00,,OVC060,0.01,VWS V14.01,2013-05-30 08:08:00,
2013-05-30 01:11:00,49.2,46.7,29.92,WSW,253,6.0,8.0,91,0.00,,OVC060,0.01,VWS V14.01,2013-05-30 08:11:00,
2013-05-30 01:13:00,49.1,46.6,29.92,SW,223,3.0,9.0,91,0.00,,OVC060,0.01,VWS V14.01,2013-05-30 08:13:00,
2013-05-30 01:14:00,49.1,46.6,29.92,SSW,198,6.0,9.0,91,0.00,,OVC060,0.01,VWS V14.01,2013-05-30 08:14:00,
2013-05-30 01:18:00,48.9,46.4,29.92,SSW,200,0.0,5.0,91,0.00,,OVC060,0.01,VWS V14.01,2013-05-30 08:18:00,
2013-05-30 01:20:00,48.9,46.4,29.92,SSW,202,0.0,5.0,91,0.00,,OVC060,0.01,VWS V14.01,2013-05-30 08:20:00,
2013-05-30 01:21:00,48.9,46.4,29.92,SSW,202,1.0,5.0,91,0.00,,OVC060,0.01,VWS V14.01,2013-05-30 08:21:00,
2013-05-30 01:22:00,48.9,46.4,29.92,WNW,292,0.0,5.0,91,0.00,,OVC060,0.01,VWS V14.01,2013-05-30 08:22:00,
2013-05-30 01:26:00,48.8,46.3,29.92,SSE,155,3.0,5.0,91,0.00,,OVC060,0.01,VWS V14.01,2013-05-30 08:26:00,
2013-05-30 01:28:00,48.6,46.1,29.92,SE,141,2.0,6.0,91,0.00,,OVC060,0.01,VWS V14.01,2013-05-30 08:28:00,
2013-05-30 01:30:00,48.6,45.8,29.93,SSW,205,0.0,6.0,90,0.00,,OVC060,0.01,VWS V14.01,2013-05-30 08:30:00,
2013-05-30 01:31:00,48.6,45.8,29.93,SSW,205,0.0,6.0,90,0.00,,OVC060,0.01,VWS V14.01,2013-05-30 08:31:00,
2013-05-30 01:33:00,48.6,45.8,29.93,SSW,205,1.0,1.0,90,0.00,,OVC060,0.01,VWS V14.01,2013-05-30 08:33:00,
2013-05-30 01:35:00,48.5,45.7,29.93,SSW,205,0.0,1.0,90,0.00,,OVC060,0.01,VWS V14.01,2013-05-30 08:35:00,
2013-05-30 01:36:00,48.5,45.7,29.93,SSW,205,0.0,1.0,90,0.00,,OVC060,0.01,VWS V14.01,2013-05-30 08:36:00,
2013-05-30 01:38:00,48.5,45.7,29.93,SSW,205,0.0,0.0,90,0.00,,OVC060,0.01,VWS V14.01,2013-05-30 08:38:00,
2013-05-30 01:39:00,48.5,46.0,29.93,SSW,205,0.0,0.0,91,0.00,,OVC060,0.01,VWS V14.01,2013-05-30 08:39:00,
2013-05-30 01:41:00,48.5,46.0,29.93,North,354,1.0,2.0,91,0.00,,OVC060,0.01,VWS V14.01,2013-05-30 08:41:00,
2013-05-30 01:43:00,48.3,45.8,29.93,WNW,302,0.0,2.0,91,0.00,,OVC060,0.01,VWS V14.01,2013-05-30 08:43:00,
2013-05-30 01:44:00,48.3,45.8,29.93,WNW,302,0.0,2.0,91,0.00,,OVC060,0.01,VWS V14.01,2013-05-30 08:44:00,
2013-05-30 01:45:00,48.3,45.8,29.93,WNW,302,0.0,2.0,91,0.00,,OVC060,0.01,VWS V14.01,2013-05-30 08:45:00,
2013-05-30 01:46:00,48.3,45.8,29.93,WNW,296,0.0,2.0,91,0.00,,OVC060,0.01,VWS V14.01,2013-05-30 08:46:00,
2013-05-30 01:50:00,48.2,45.7,29.93,WNW,296,0.0,2.0,91,0.00,,OVC060,0.01,VWS V14.01,2013-05-30 08:50:00,
2013-05-30 01:51:00,48.2,45.7,29.93,WNW,296,0.0,2.0,91,0.00,,OVC060,0.01,VWS V14.01,2013-05-30 08:51:00,
2013-05-30 01:53:00,48.2,45.7,29.93,WNW,296,0.0,0.0,91,0.00,,OVC060,0.01,VWS V14.01,2013-05-30 08:53:00,
2013-05-30 01:55:00,48.2,45.7,29.93,WNW,296,0.0,1.0,91,0.00,,OVC060,0.01,VWS V14.01,2013-05-30 08:55:00,
2013-05-30 01:56:00,48.2,45.7,29.93,WNW,296,0.0,0.0,91,0.00,,OVC060,0.01,VWS V14.01,2013-05-30 08:56:00,
2013-05-30 01:58:00,48.2,45.7,29.93,WNW,296,2.0,2.0,91,0.00,,OVC060,0.01,VWS V14.01,2013-05-30 08:58:00,
2013-05-30 01:59:00,48.2,45.7,29.93,WNW,296,0.0,2.0,91,0.00,,OVC060,0.01,VWS V14.01,2013-05-30 08:59:00,
2013-05-30 02:01:00,48.0,45.5,29.94,WNW,296,0.0,2.0,91,0.00,,OVC095,0.01,VWS V14.01,2013-05-30 09:01:00,
2013-05-30 02:04:00,48.0,45.5,29.94,WNW,296,1.0,1.0,91,0.00,,OVC095,0.01,VWS V14.01,2013-05-30 09:04:00,
2013-05-30 02:05:00,48.0,45.5,29.94,WNW,296,0.0,1.0,91,0.00,,OVC095,0.01,VWS V14.01,2013-05-30 09:05:00,
2013-05-30 02:07:00,48.0,45.5,29.94,NNE,25,2.0,2.0,91,0.00,,OVC095,0.01,VWS V14.01,2013-05-30 09:07:00,
2013-05-30 02:08:00,48.0,45.5,29.94,NNE,21,2.0,3.0,91,0.00,,OVC095,0.01,VWS V14.01,2013-05-30 09:08:00,
2013-05-30 02:09:00,48.0,45.8,29.94,SSW,196,1.0,5.0,92,0.00,,OVC095,0.01,VWS V14.01,2013-05-30 09:09:00,
2013-05-30 02:12:00,48.0,45.8,29.94,SW,226,0.0,5.0,92,0.00,,OVC095,0.01,VWS V14.01,2013-05-30 09:12:00,
2013-05-30 02:13:00,48.0,45.8,29.94,SW,226,0.0,5.0,92,0.00,,OVC095,0.01,VWS V14.01,2013-05-30 09:13:00,
2013-05-30 02:14:00,48.0,45.8,29.94,SW,217,0.0,5.0,92,0.00,,OVC095,0.01,VWS V14.01,2013-05-30 09:14:00,
2013-05-30 02:16:00,48.0,45.8,29.94,South,175,0.0,5.0,92,0.00,,OVC095,0.01,VWS V14.01,2013-05-30 09:16:00,
2013-05-30 02:17:00,48.0,45.8,29.94,South,175,0.0,0.0,92,0.00,,OVC095,0.01,VWS V14.01,2013-05-30 09:17:00,
2013-05-30 02:18:00,48.0,45.8,29.94,South,185,1.0,5.0,92,0.00,,OVC095,0.01,VWS V14.01,2013-05-30 09:18:00,
2013-05-30 02:21:00,47.9,45.7,29.94,South,185,0.0,5.0,92,0.00,,OVC095,0.01,VWS V14.01,2013-05-30 09:21:00,
2013-05-30 02:22:00,47.9,45.7,29.94,South,185,0.0,0.0,92,0.00,,OVC095,0.01,VWS V14.01,2013-05-30 09:22:00,
2013-05-30 02:24:00,47.9,45.7,29.94,South,185,0.0,0.0,92,0.00,,OVC095,0.01,VWS V14.01,2013-05-30 09:24:00,
2013-05-30 02:26:00,47.9,45.7,29.94,South,185,1.0,1.0,92,0.00,,OVC095,0.01,VWS V14.01,2013-05-30 09:26:00,
2013-05-30 02:28:00,47.9,45.7,29.94,South,185,0.0,2.0,92,0.00,,OVC095,0.01,VWS V14.01,2013-05-30 09:28:00,
2013-05-30 02:29:00,47.7,45.5,29.94,South,185,0.0,2.0,92,0.00,,OVC095,0.01,VWS V14.01,2013-05-30 09:29:00,
2013-05-30 02:31:00,47.7,45.5,29.94,South,185,0.0,0.0,92,0.00,,OVC095,0.01,VWS V14.01,2013-05-30 09:31:00,
2013-05-30 02:34:00,47.7,45.5,29.94,SSW,199,0.0,2.0,92,0.00,,OVC095,0.01,VWS V14.01,2013-05-30 09:34:00,
2013-05-30 02:35:00,47.7,45.5,29.94,SSW,199,0.0,2.0,92,0.00,,OVC095,0.01,VWS V14.01,2013-05-30 09:35:00,
2013-05-30 02:36:00,47.7,45.5,29.94,SSW,199,0.0,2.0,92,0.00,,OVC095,0.01,VWS V14.01,2013-05-30 09:36:00,
2013-05-30 02:40:00,47.7,45.5,29.94,ESE,116,1.0,5.0,92,0.00,,OVC095,0.01,VWS V14.01,2013-05-30 09:40:00,
2013-05-30 02:41:00,47.6,45.4,29.94,ESE,116,0.0,3.0,92,0.00,,OVC095,0.01,VWS V14.01,2013-05-30 09:41:00,
2013-05-30 02:42:00,47.6,45.4,29.94,South,188,2.0,3.0,92,0.00,,OVC095,0.01,VWS V14.01,2013-05-30 09:42:00,
2013-05-30 02:44:00,47.6,45.4,29.94,South,188,1.0,3.0,92,0.00,,OVC095,0.01,VWS V14.01,2013-05-30 09:44:00,
2013-05-30 02:45:00,47.6,45.4,29.95,South,188,0.0,3.0,92,0.00,,OVC095,0.01,VWS V14.01,2013-05-30 09:45:00,
2013-05-30 02:47:00,47.6,45.7,29.95,South,182,0.0,1.0,93,0.00,,OVC095,0.01,VWS V14.01,2013-05-30 09:47:00,
2013-05-30 02:49:00,47.6,45.7,29.95,South,182,0.0,1.0,93,0.00,,OVC095,0.01,VWS V14.01,2013-05-30 09:49:00,
2013-05-30 02:51:00,47.6,45.7,29.95,SW,220,2.0,4.0,93,0.00,,OVC095,0.01,VWS V14.01,2013-05-30 09:51:00,
2013-05-30 02:55:00,47.6,45.7,29.95,SSE,150,0.0,2.0,93,0.00,,OVC095,0.01,VWS V14.01,2013-05-30 09:55:00,
2013-05-30 02:56:00,47.6,45.7,29.95,SE,145,2.0,2.0,93,0.00,,OVC095,0.01,VWS V14.01,2013-05-30 09:56:00,
2013-05-30 02:57:00,47.6,45.7,29.95,SE,140,3.0,5.0,93,0.00,,OVC095,0.01,VWS V14.01,2013-05-30 09:57:00,
2013-05-30 02:58:00,47.6,45.7,29.95,SSE,167,0.0,5.0,93,0.00,,OVC095,0.01,VWS V14.01,2013-05-30 09:58:00,
2013-05-30 03:01:00,47.6,45.7,29.95,SSE,167,0.0,5.0,93,0.00,,BKN028,0.01,VWS V14.01,2013-05-30 10:01:00,
2013-05-30 03:03:00,47.6,45.7,29.95,SSE,167,0.0,0.0,93,0.00,,BKN028,0.01,VWS V14.01,2013-05-30 10:03:00,
2013-05-30 03:04:00,47.6,45.7,29.95,SSE,167,0.0,0.0,93,0.00,,BKN028,0.01,VWS V14.01,2013-05-30 10:04:00,
2013-05-30 03:05:00,47.6,45.7,29.95,ESE,116,2.0,2.0,93,0.00,,BKN028,0.01,VWS V14.01,2013-05-30 10:05:00,
2013-05-30 03:06:00,47.6,45.7,29.95,SSE,151,2.0,3.0,93,0.00,,BKN028,0.01,VWS V14.01,2013-05-30 10:06:00,
2013-05-30 03:09:00,47.6,45.7,29.95,SSE,151,0.0,2.0,93,0.00,,BKN028,0.01,VWS V14.01,2013-05-30 10:09:00,
2013-05-30 03:10:00,47.6,45.7,29.95,SSE,151,0.0,2.0,93,0.00,,BKN028,0.01,VWS V14.01,2013-05-30 10:10:00,
2013-05-30 03:11:00,47.6,45.7,29.95,SSE,151,0.0,2.0,93,0.00,,BKN028,0.01,VWS V14.01,2013-05-30 10:11:00,
2013-05-30 03:13:00,47.6,45.7,29.95,SSE,151,0.0,0.0,93,0.00,,BKN028,0.01,VWS V14.01,2013-05-30 10:13:00,
2013-05-30 03:15:00,47.6,45.7,29.95,SSE,151,0.0,0.0,93,0.00,,BKN028,0.01,VWS V14.01,2013-05-30 10:15:00,
2013-05-30 03:18:00,47.6,45.7,29.95,SSE,151,0.0,3.0,93,0.00,,BKN028,0.01,VWS V14.01,2013-05-30 10:18:00,
2013-05-30 03:19:00,47.6,45.7,29.95,SSE,151,0.0,3.0,93,0.00,,BKN028,0.01,VWS V14.01,2013-05-30 10:19:00,
2013-05-30 03:20:00,47.6,45.7,29.95,SSE,151,0.0,3.0,93,0.00,,BKN028,0.01,VWS V14.01,2013-05-30 10:20:00,
2013-05-30 03:21:00,47.6,45.7,29.95,SSE,151,0.0,3.0,93,0.00,,BKN028,0.01,VWS V14.01,2013-05-30 10:21:00,
2013-05-30 03:22:00,47.6,45.7,29.95,SSE,151,0.0,0.0,93,0.00,,BKN028,0.01,VWS V14.01,2013-05-30 10:22:00,
2013-05-30 03:25:00,47.4,45.5,29.95,SSE,151,0.0,0.0,93,0.00,,BKN028,0.01,VWS V14.01,2013-05-30 10:25:00,
2013-05-30 03:27:00,47.4,45.5,29.95,SSE,151,0.0,0.0,93,0.00,,BKN028,0.01,VWS V14.01,2013-05-30 10:27:00,
2013-05-30 03:28:00,47.4,45.5,29.95,SSE,151,0.0,0.0,93,0.00,,BKN028,0.01,VWS V14.01,2013-05-30 10:28:00,
2013-05-30 03:30:00,47.4,45.5,29.95,SSE,151,0.0,0.0,93,0.00,,BKN028,0.01,VWS V14.01,2013-05-30 10:30:00,
2013-05-30 03:31:00,47.4,45.5,29.96,SSW,209,3.0,4.0,93,0.00,,BKN028,0.01,VWS V14.01,2013-05-30 10:31:00,
2013-05-30 03:34:00,47.4,45.5,29.96,SSW,196,0.0,5.0,93,0.00,,BKN028,0.01,VWS V14.01,2013-05-30 10:34:00,
2013-05-30 03:36:00,47.4,45.5,29.96,SSW,205,0.0,5.0,93,0.00,,BKN028,0.01,VWS V14.01,2013-05-30 10:36:00,
2013-05-30 03:37:00,47.3,45.4,29.96,SSW,205,1.0,1.0,93,0.00,,BKN028,0.01,VWS V14.01,2013-05-30 10:37:00,
2013-05-30 03:41:00,47.3,45.4,29.96,ESE,120,1.0,5.0,93,0.00,,BKN028,0.01,VWS V14.01,2013-05-30 10:41:00,
2013-05-30 03:43:00,47.3,45.4,29.96,ESE,120,1.0,1.0,93,0.00,,BKN028,0.01,VWS V14.01,2013-05-30 10:43:00,
2013-05-30 03:45:00,47.3,45.4,29.96,ESE,120,1.0,1.0,93,0.00,,BKN028,0.01,VWS V14.01,2013-05-30 10:45:00,
2013-05-30 03:48:00,47.3,45.4,29.96,SSE,152,2.0,3.0,93,0.00,,BKN028,0.01,VWS V14.01,2013-05-30 10:48:00,
2013-05-30 03:50:00,47.1,45.2,29.96,SSE,152,0.0,3.0,93,0.00,,BKN028,0.01,VWS V14.01,2013-05-30 10:50:00,
2013-05-30 03:53:00,47.1,45.2,29.96,SE,144,1.0,2.0,93,0.00,,BKN028,0.01,VWS V14.01,2013-05-30 10:53:00,
2013-05-30 03:55:00,47.0,45.1,29.96,SE,144,0.0,2.0,93,0.00,,BKN028,0.01,VWS V14.01,2013-05-30 10:55:00,
2013-05-30 03:56:00,47.0,45.1,29.96,SSE,164,1.0,5.0,93,0.00,,BKN028,0.01,VWS V14.01,2013-05-30 10:56:00,
2013-05-30 03:58:00,47.0,45.1,29.96,SSE,164,0.0,2.0,93,0.00,,BKN028,0.01,VWS V14.01,2013-05-30 10:58:00,
2013-05-30 04:01:00,46.8,44.9,29.96,ESE,116,0.0,5.0,93,0.00,,OVC022,0.01,VWS V14.01,2013-05-30 11:01:00,
2013-05-30 04:02:00,46.8,44.9,29.96,ESE,116,0.0,0.0,93,0.00,,OVC022,0.01,VWS V14.01,2013-05-30 11:02:00,
2013-05-30 04:03:00,46.8,44.9,29.96,ESE,116,0.0,0.0,93,0.00,,OVC022,0.01,VWS V14.01,2013-05-30 11:03:00,
2013-05-30 04:05:00,46.8,44.9,29.96,ESE,116,0.0,0.0,93,0.00,,OVC022,0.01,VWS V14.01,2013-05-30 11:05:00,
2013-05-30 04:07:00,46.8,44.9,29.96,ESE,116,0.0,0.0,93,0.00,,OVC022,0.01,VWS V14.01,2013-05-30 11:07:00,
2013-05-30 04:08:00,46.7,44.8,29.96,North,357,1.0,3.0,93,0.00,,OVC022,0.01,VWS V14.01,2013-05-30 11:08:00,
2013-05-30 04:09:00,46.7,44.8,29.96,North,359,1.0,3.0,93,0.00,,OVC022,0.01,VWS V14.01,2013-05-30 11:09:00,
2013-05-30 04:10:00,46.7,44.8,29.96,North,0,0.0,3.0,93,0.00,,OVC022,0.01,VWS V14.01,2013-05-30 11:10:00,
2013-05-30 04:13:00,46.7,44.8,29.96,North,0,0.0,0.0,93,0.00,,OVC022,0.01,VWS V14.01,2013-05-30 11:13:00,
2013-05-30 04:15:00,46.5,44.6,29.96,North,0,0.0,0.0,93,0.00,,OVC022,0.01,VWS V14.01,2013-05-30 11:15:00,
2013-05-30 04:16:00,46.5,44.6,29.96,North,0,0.0,1.0,93,0.00,,OVC022,0.01,VWS V14.01,2013-05-30 11:16:00,
2013-05-30 04:17:00,46.5,44.6,29.96,North,0,0.0,0.0,93,0.00,,OVC022,0.01,VWS V14.01,2013-05-30 11:17:00,
2013-05-30 04:18:00,46.5,44.6,29.96,North,0,0.0,0.0,93,0.00,,OVC022,0.01,VWS V14.01,2013-05-30 11:18:00,
2013-05-30 04:20:00,46.5,44.6,29.96,North,11,0.0,2.0,93,0.00,,OVC022,0.01,VWS V14.01,2013-05-30 11:20:00,
2013-05-30 04:21:00,46.5,44.6,29.96,North,11,0.0,2.0,93,0.00,,OVC022,0.01,VWS V14.01,2013-05-30 11:21:00,
2013-05-30 04:22:00,46.5,44.6,29.96,SSE,147,1.0,6.0,93,0.00,,OVC022,0.01,VWS V14.01,2013-05-30 11:22:00,
2013-05-30 04:23:00,46.4,44.5,29.96,SSE,147,0.0,6.0,93,0.00,,OVC022,0.01,VWS V14.01,2013-05-30 11:23:00,
2013-05-30 04:26:00,46.4,44.8,29.96,SSE,147,0.0,6.0,94,0.00,,OVC022,0.01,VWS V14.01,2013-05-30 11:26:00,
2013-05-30 04:28:00,46.4,44.8,29.96,SE,143,1.0,2.0,94,0.00,,OVC022,0.01,VWS V14.01,2013-05-30 11:28:00,
2013-05-30 04:29:00,46.4,44.8,29.96,SE,143,0.0,2.0,94,0.00,,OVC022,0.01,VWS V14.01,2013-05-30 11:29:00,
2013-05-30 04:31:00,46.4,44.8,29.97,SE,143,0.0,2.0,94,0.00,,OVC022,0.01,VWS V14.01,2013-05-30 11:31:00,
2013-05-30 04:32:00,46.4,44.8,29.97,SE,143,0.0,0.0,94,0.00,,OVC022,0.01,VWS V14.01,2013-05-30 11:32:00,
2013-05-30 04:33:00,46.4,44.8,29.97,SE,143,0.0,0.0,94,0.00,,OVC022,0.01,VWS V14.01,2013-05-30 11:33:00,
2013-05-30 04:37:00,46.4,44.8,29.97,SE,140,0.0,0.0,94,0.00,,OVC022,0.01,VWS V14.01,2013-05-30 11:37:00,
2013-05-30 04:38:00,46.4,44.8,29.97,SSE,147,0.0,3.0,94,0.00,,OVC022,0.01,VWS V14.01,2013-05-30 11:38:00,
2013-05-30 04:39:00,46.4,44.8,29.97,SSE,147,0.0,3.0,94,0.00,,OVC022,0.01,VWS V14.01,2013-05-30 11:39:00,
2013-05-30 04:42:00,46.4,44.8,29.97,SSE,147,0.0,2.0,94,0.00,,OVC022,0.01,VWS V14.01,2013-05-30 11:42:00,
2013-05-30 04:43:00,46.5,44.9,29.97,SE,145,1.0,2.0,94,0.00,,OVC022,0.01,VWS V14.01,2013-05-30 11:43:00,
2013-05-30 04:45:00,46.5,44.9,29.97,SE,145,0.0,2.0,94,0.00,,OVC022,0.01,VWS V14.01,2013-05-30 11:45:00,
2013-05-30 04:46:00,46.5,44.9,29.97,SE,145,0.0,2.0,94,0.00,,OVC022,0.01,VWS V14.01,2013-05-30 11:46:00,
2013-05-30 04:48:00,46.5,44.9,29.97,SE,145,1.0,1.0,94,0.00,,OVC022,0.01,VWS V14.01,2013-05-30 11:48:00,
2013-05-30 04:49:00,46.5,44.9,29.97,SE,143,1.0,5.0,94,0.00,,OVC022,0.01,VWS V14.01,2013-05-30 11:49:00,
2013-05-30 04:51:00,46.5,44.9,29.97,WSW,241,4.0,5.0,94,0.00,,OVC022,0.01,VWS V14.01,2013-05-30 11:51:00,
2013-05-30 04:54:00,46.5,44.9,29.97,WSW,239,0.0,2.0,94,0.00,,OVC022,0.01,VWS V14.01,2013-05-30 11:54:00,
2013-05-30 04:56:00,46.5,44.9,29.97,WSW,239,0.0,2.0,94,0.00,,OVC022,0.01,VWS V14.01,2013-05-30 11:56:00,
2013-05-30 04:57:00,46.5,44.9,29.97,WSW,239,0.0,1.0,94,0.00,,OVC022,0.01,VWS V14.01,2013-05-30 11:57:00,
2013-05-30 04:58:00,46.5,44.9,29.97,WSW,239,0.0,1.0,94,0.00,,OVC022,0.01,VWS V14.01,2013-05-30 11:58:00,
2013-05-30 04:59:00,46.5,44.9,29.97,WSW,239,0.0,1.0,94,0.00,,OVC022,0.01,VWS V14.01,2013-05-30 11:59:00,
2013-05-30 05:02:00,46.5,44.9,29.97,South,171,0.0,2.0,94,0.00,,OVC022,0.01,VWS V14.01,2013-05-30 12:02:00,
2013-05-30 05:03:00,46.5,44.9,29.97,South,169,0.0,2.0,94,0.00,,OVC022,0.01,VWS V14.01,2013-05-30 12:03:00,
2013-05-30 05:04:00,46.5,44.9,29.97,South,172,0.0,2.0,94,0.00,,OVC022,0.01,VWS V14.01,2013-05-30 12:04:00,
2013-05-30 05:07:00,46.7,45.1,29.97,SSW,193,0.0,0.0,94,0.00,,OVC022,0.01,VWS V14.01,2013-05-30 12:07:00,
2013-05-30 05:11:00,46.7,45.1,29.97,SSE,148,4.0,4.0,94,0.00,,OVC022,0.01,VWS V14.01,2013-05-30 12:11:00,
2013-05-30 05:13:00,46.7,45.1,29.97,SE,124,0.0,4.0,94,0.00,,OVC022,0.01,VWS V14.01,2013-05-30 12:13:00,
2013-05-30 05:14:00,46.7,45.1,29.97,SSE,158,0.0,4.0,94,0.00,,OVC022,0.01,VWS V14.01,2013-05-30 12:14:00,
2013-05-30 05:15:00,46.7,45.1,29.97,WSW,247,0.0,4.0,94,0.00,,OVC022,0.01,VWS V14.01,2013-05-30 12:15:00,
2013-05-30 05:16:00,46.7,45.1,29.97,SW,220,0.0,4.0,94,0.00,,OVC022,0.01,VWS V14.01,2013-05-30 12:16:00,
2013-05-30 05:17:00,46.7,45.1,29.97,SSE,152,0.0,1.0,94,0.00,,OVC022,0.01,VWS V14.01,2013-05-30 12:17:00,
2013-05-30 05:19:00,46.7,45.1,29.97,SSE,152,0.0,1.0,94,0.00,,OVC022,0.01,VWS V14.01,2013-05-30 12:19:00,
2013-05-30 05:20:00,46.7,45.1,29.97,SSE,152,0.0,1.0,94,0.00,,OVC022,0.01,VWS V14.01,2013-05-30 12:20:00,
2013-05-30 05:23:00,46.7,45.1,29.97,SSE,152,0.0,0.0,94,0.00,,OVC022,0.01,VWS V14.01,2013-05-30 12:23:00,
2013-05-30 05:24:00,46.7,45.1,29.97,SE,144,1.0,1.0,94,0.00,,OVC022,0.01,VWS V14.01,2013-05-30 12:24:00,
2013-05-30 05:25:00,46.7,45.1,29.97,SE,144,0.0,1.0,94,0.00,,OVC022,0.01,VWS V14.01,2013-05-30 12:25:00,
2013-05-30 05:26:00,46.7,45.1,29.97,SE,144,0.0,1.0,94,0.00,,OVC022,0.01,VWS V14.01,2013-05-30 12:26:00,
2013-05-30 05:28:00,46.7,45.1,29.97,SE,144,1.0,2.0,94,0.00,,OVC022,0.01,VWS V14.01,2013-05-30 12:28:00,
2013-05-30 05:29:00,46.7,45.1,29.97,SE,144,0.0,2.0,94,0.00,,OVC022,0.01,VWS V14.01,2013-05-30 12:29:00,
2013-05-30 05:34:00,46.7,45.1,29.98,South,186,0.0,3.0,94,0.00,,OVC022,0.01,VWS V14.01,2013-05-30 12:34:00,
2013-05-30 05:35:00,46.7,45.1,29.98,South,186,0.0,3.0,94,0.00,,OVC022,0.01,VWS V14.01,2013-05-30 12:35:00,
2013-05-30 05:38:00,46.7,45.1,29.98,SE,136,2.0,3.0,94,0.00,,OVC022,0.01,VWS V14.01,2013-05-30 12:38:00,
2013-05-30 05:40:00,46.7,45.1,29.98,SE,136,0.0,3.0,94,0.00,,OVC022,0.01,VWS V14.01,2013-05-30 12:40:00,
2013-05-30 05:42:00,46.7,45.1,29.98,SE,133,0.0,1.0,94,0.00,,OVC022,0.01,VWS V14.01,2013-05-30 12:42:00,
2013-05-30 05:43:00,46.7,45.1,29.98,SE,133,0.0,1.0,94,0.00,,OVC022,0.01,VWS V14.01,2013-05-30 12:43:00,
2013-05-30 05:45:00,46.7,45.1,29.98,East,96,0.0,2.0,94,0.00,,OVC022,0.01,VWS V14.01,2013-05-30 12:45:00,
2013-05-30 05:47:00,46.7,44.8,29.98,East,96,0.0,0.0,93,0.00,,OVC022,0.01,VWS V14.01,2013-05-30 12:47:00,
2013-05-30 05:51:00,46.7,44.8,29.98,East,96,0.0,3.0,93,0.00,,OVC022,0.01,VWS V14.01,2013-05-30 12:51:00,
2013-05-30 05:56:00,46.8,45.2,29.98,East,89,0.0,2.0,94,0.00,,OVC022,0.01,VWS V14.01,2013-05-30 12:56:00,
2013-05-30 05:57:00,46.8,45.2,29.98,East,89,0.0,0.0,94,0.00,,OVC022,0.01,VWS V14.01,2013-05-30 12:57:00,
2013-05-30 05:59:00,47.0,45.4,29.98,East,89,0.0,0.0,94,0.00,,OVC022,0.01,VWS V14.01,2013-05-30 12:59:00,
2013-05-30 06:03:00,47.0,45.4,29.98,SE,128,0.0,5.0,94,0.00,,FEW019,0.01,VWS V14.01,2013-05-30 13:03:00,
2013-05-30 06:05:00,47.0,45.1,29.98,SE,130,0.0,5.0,93,0.00,,FEW019,0.01,VWS V14.01,2013-05-30 13:05:00,
2013-05-30 06:06:00,47.0,45.1,29.98,SE,130,0.0,0.0,93,0.00,,FEW019,0.01,VWS V14.01,2013-05-30 13:06:00,
2013-05-30 06:08:00,47.0,45.1,29.98,SE,130,0.0,2.0,93,0.00,,FEW019,0.01,VWS V14.01,2013-05-30 13:08:00,
2013-05-30 06:11:00,47.0,45.1,29.98,SE,130,0.0,2.0,93,0.00,,FEW019,0.01,VWS V14.01,2013-05-30 13:11:00,
2013-05-30 06:13:00,47.0,45.1,29.98,SE,126,0.0,5.0,93,0.00,,FEW019,0.01,VWS V14.01,2013-05-30 13:13:00,
2013-05-30 06:14:00,47.0,45.1,29.98,SE,126,0.0,5.0,93,0.00,,FEW019,0.01,VWS V14.01,2013-05-30 13:14:00,
2013-05-30 06:15:00,47.0,45.1,29.99,East,100,2.0,5.0,93,0.00,,FEW019,0.01,VWS V14.01,2013-05-30 13:15:00,
2013-05-30 06:17:00,47.0,45.1,29.99,ESE,114,0.0,1.0,93,0.00,,FEW019,0.01,VWS V14.01,2013-05-30 13:17:00,
2013-05-30 06:20:00,47.0,45.1,29.99,ESE,112,0.0,2.0,93,0.00,,FEW019,0.01,VWS V14.01,2013-05-30 13:20:00,
2013-05-30 06:22:00,47.1,45.2,29.99,ESE,104,0.0,1.0,93,0.00,,FEW019,0.01,VWS V14.01,2013-05-30 13:22:00,
2013-05-30 06:24:00,47.1,45.2,29.99,ESE,103,2.0,2.0,93,0.00,,FEW019,0.01,VWS V14.01,2013-05-30 13:24:00,
2013-05-30 06:25:00,47.1,45.2,29.99,ESE,103,0.0,2.0,93,0.00,,FEW019,0.01,VWS V14.01,2013-05-30 13:25:00,
2013-05-30 06:26:00,47.1,45.2,29.99,ESE,104,1.0,2.0,93,0.00,,FEW019,0.01,VWS V14.01,2013-05-30 13:26:00,
2013-05-30 06:27:00,47.1,45.2,29.99,ESE,104,0.0,1.0,93,0.00,,FEW019,0.01,VWS V14.01,2013-05-30 13:27:00,
2013-05-30 06:30:00,47.1,45.2,29.99,ESE,107,2.0,4.0,93,0.00,,FEW019,0.01,VWS V14.01,2013-05-30 13:30:00,
2013-05-30 06:32:00,47.1,45.2,29.99,ESE,107,1.0,3.0,93,0.00,,FEW019,0.01,VWS V14.01,2013-05-30 13:32:00,
2013-05-30 06:34:00,47.1,44.9,29.99,SE,131,3.0,4.0,92,0.00,,FEW019,0.01,VWS V14.01,2013-05-30 13:34:00,
2013-05-30 06:35:00,47.1,44.9,29.99,SE,131,2.0,4.0,92,0.00,,FEW019,0.01,VWS V14.01,2013-05-30 13:35:00,
2013-05-30 06:39:00,47.3,45.1,29.99,SE,136,3.0,6.0,92,0.00,,FEW019,0.01,VWS V14.01,2013-05-30 13:39:00,
2013-05-30 06:40:00,47.3,45.1,29.99,SE,144,0.0,6.0,92,0.00,,FEW019,0.01,VWS V14.01,2013-05-30 13:40:00,
2013-05-30 06:41:00,47.3,45.1,29.99,SE,144,1.0,6.0,92,0.00,,FEW019,0.01,VWS V14.01,2013-05-30 13:41:00,
2013-05-30 06:44:00,47.3,45.1,29.99,SE,141,0.0,3.0,92,0.00,,FEW019,0.01,VWS V14.01,2013-05-30 13:44:00,
2013-05-30 06:46:00,47.3,44.8,29.99,SE,141,0.0,0.0,91,0.00,,FEW019,0.01,VWS V14.01,2013-05-30 13:46:00,
2013-05-30 06:47:00,47.3,44.8,29.99,SE,141,2.0,2.0,91,0.00,,FEW019,0.01,VWS V14.01,2013-05-30 13:47:00,
2013-05-30 06:49:00,47.3,44.8,29.99,SE,138,0.0,3.0,91,0.00,,FEW019,0.01,VWS V14.01,2013-05-30 13:49:00,
2013-05-30 06:51:00,47.4,44.9,29.99,SE,138,1.0,1.0,91,0.00,,FEW019,0.01,VWS V14.01,2013-05-30 13:51:00,
2013-05-30 06:52:00,47.4,44.9,29.99,SE,138,0.0,1.0,91,0.00,,FEW019,0.01,VWS V14.01,2013-05-30 13:52:00,
2013-05-30 06:53:00,47.4,44.9,29.99,SE,138,1.0,2.0,91,0.00,,FEW019,0.01,VWS V14.01,2013-05-30 13:53:00,
2013-05-30 06:54:00,47.4,44.9,29.99,SE,138,0.0,2.0,91,0.00,,FEW019,0.01,VWS V14.01,2013-05-30 13:54:00,
2013-05-30 06:57:00,47.6,45.1,29.99,SE,138,2.0,2.0,91,0.00,,FEW019,0.01,VWS V14.01,2013-05-30 13:57:00,
2013-05-30 07:00:00,47.6,45.1,29.99,ENE,71,0.0,3.0,91,0.00,,OVC110,0.01,VWS V14.01,2013-05-30 14:00:00,
2013-05-30 07:01:00,47.6,45.1,29.99,SE,141,0.0,3.0,91,0.00,,OVC110,0.01,VWS V14.01,2013-05-30 14:01:00,
2013-05-30 07:02:00,47.7,45.2,29.99,SE,131,1.0,5.0,91,0.00,,OVC110,0.01,VWS V14.01,2013-05-30 14:02:00,
2013-05-30 07:05:00,47.7,44.9,29.99,ESE,112,4.0,7.0,90,0.00,,OVC110,0.01,VWS V14.01,2013-05-30 14:05:00,
2013-05-30 07:06:00,47.9,45.1,29.99,ESE,112,2.0,3.0,90,0.00,,OVC110,0.01,VWS V14.01,2013-05-30 14:06:00,
2013-05-30 07:08:00,47.9,45.1,29.99,ESE,112,2.0,3.0,90,0.00,,OVC110,0.01,VWS V14.01,2013-05-30 14:08:00,
2013-05-30 07:11:00,48.0,44.9,29.99,East,79,2.0,3.0,89,0.00,,OVC110,0.01,VWS V14.01,2013-05-30 14:11:00,
2013-05-30 07:12:00,48.2,45.1,29.99,East,82,2.0,3.0,89,0.00,,OVC110,0.01,VWS V14.01,2013-05-30 14:12:00,
2013-05-30 07:14:00,48.3,45.2,29.99,ESE,107,1.0,5.0,89,0.00,,OVC110,0.01,VWS V14.01,2013-05-30 14:14:00,
2013-05-30 07:16:00,48.5,45.4,30.00,ESE,106,2.0,2.0,89,0.00,,OVC110,0.01,VWS V14.01,2013-05-30 14:16:00,
2013-05-30 07:17:00,48.5,45.1,30.00,ESE,106,0.0,2.0,88,0.00,,OVC110,0.01,VWS V14.01,2013-05-30 14:17:00,
2013-05-30 07:18:00,48.5,45.4,30.00,ESE,106,1.0,2.0,89,0.00,,OVC110,0.01,VWS V14.01,2013-05-30 14:18:00,
2013-05-30 07:20:00,48.6,45.2,30.00,ESE,106,1.0,2.0,88,0.00,,OVC110,0.01,VWS V14.01,2013-05-30 14:20:00,
2013-05-30 07:22:00,48.6,45.2,30.00,ESE,106,0.0,1.0,88,0.00,,OVC110,0.01,VWS V14.01,2013-05-30 14:22:00,
2013-05-30 07:26:00,48.6,44.9,30.00,ESE,106,0.0,2.0,87,0.00,,OVC110,0.01,VWS V14.01,2013-05-30 14:26:00,
2013-05-30 07:27:00,48.8,45.1,30.00,ESE,106,0.0,0.0,87,0.00,,OVC110,0.01,VWS V14.01,2013-05-30 14:27:00,
2013-05-30 07:30:00,48.8,45.1,30.00,ESE,106,0.0,0.0,87,0.00,,OVC110,0.01,VWS V14.01,2013-05-30 14:30:00,
2013-05-30 07:31:00,48.8,45.1,30.00,ESE,106,0.0,0.0,87,0.00,,OVC110,0.01,VWS V14.01,2013-05-30 14:31:00,
2013-05-30 07:32:00,48.8,45.1,30.00,ESE,106,3.0,3.0,87,0.00,,OVC110,0.01,VWS V14.01,2013-05-30 14:32:00,
2013-05-30 07:33:00,48.8,45.1,30.00,ESE,106,0.0,3.0,87,0.00,,OVC110,0.01,VWS V14.01,2013-05-30 14:33:00,
2013-05-30 07:35:00,48.8,45.1,30.00,ESE,106,1.0,3.0,87,0.00,,OVC110,0.01,VWS V14.01,2013-05-30 14:35:00,
2013-05-30 07:36:00,48.8,45.1,30.00,ESE,106,0.0,3.0,87,0.00,,OVC110,0.01,VWS V14.01,2013-05-30 14:36:00,
2013-05-30 07:38:00,48.9,45.2,30.00,ESE,106,0.0,0.0,87,0.00,,OVC110,0.01,VWS V14.01,2013-05-30 14:38:00,
2013-05-30 07:41:00,48.9,45.2,30.00,SE,127,3.0,5.0,87,0.00,,OVC110,0.01,VWS V14.01,2013-05-30 14:41:00,
2013-05-30 07:42:00,49.1,45.4,30.00,SE,127,0.0,3.0,87,0.00,,OVC110,0.01,VWS V14.01,2013-05-30 14:42:00,
2013-05-30 07:45:00,49.2,45.8,30.00,SE,127,0.0,3.0,88,0.00,,OVC110,0.01,VWS V14.01,2013-05-30 14:45:00,
2013-05-30 07:47:00,49.4,46.0,30.00,SE,127,1.0,3.0,88,0.00,,OVC110,0.01,VWS V14.01,2013-05-30 14:47:00,
2013-05-30 07:50:00,49.2,45.5,30.00,North,0,1.0,4.0,87,0.00,,OVC110,0.01,VWS V14.01,2013-05-30 14:50:00,
2013-05-30 07:51:00,49.4,45.7,30.00,North,0,0.0,4.0,87,0.00,,OVC110,0.01,VWS V14.01,2013-05-30 14:51:00,
2013-05-30 07:54:00,49.4,45.7,30.00,East,80,1.0,3.0,87,0.00,,OVC110,0.01,VWS V14.01,2013-05-30 14:54:00,
2013-05-30 07:56:00,49.4,45.4,30.00,East,80,3.0,3.0,86,0.00,,OVC110,0.01,VWS V14.01,2013-05-30 14:56:00,
2013-05-30 07:57:00,49.4,45.4,30.00,East,82,1.0,4.0,86,0.00,,OVC110,0.01,VWS V14.01,2013-05-30 14:57:00,
2013-05-30 07:58:00,49.4,45.4,30.00,East,82,0.0,4.0,86,0.00,,OVC110,0.01,VWS V14.01,2013-05-30 14:58:00,
2013-05-30 07:59:00,49.4,45.1,30.00,East,82,0.0,4.0,85,0.00,,OVC110,0.01,VWS V14.01,2013-05-30 14:59:00,
2013-05-30 08:01:00,49.5,45.5,30.01,East,82,0.0,0.0,86,0.00,,OVC024,0.01,VWS V14.01,2013-05-30 15:01:00,
2013-05-30 08:02:00,49.5,45.5,30.01,WSW,240,3.0,7.0,86,0.00,,OVC024,0.01,VWS V14.01,2013-05-30 15:02:00,
2013-05-30 08:05:00,49.5,45.5,30.01,WSW,240,0.0,7.0,86,0.00,,OVC024,0.01,VWS V14.01,2013-05-30 15:05:00,
2013-05-30 08:06:00,49.5,45.5,30.01,WSW,240,0.0,7.0,86,0.00,,OVC024,0.01,VWS V14.01,2013-05-30 15:06:00,
2013-05-30 08:07:00,49.5,45.5,30.01,WSW,240,2.0,2.0,86,0.00,,OVC024,0.01,VWS V14.01,2013-05-30 15:07:00,
2013-05-30 08:08:00,49.5,45.5,30.01,WSW,240,1.0,2.0,86,0.00,,OVC024,0.01,VWS V14.01,2013-05-30 15:08:00,
2013-05-30 08:10:00,49.6,45.6,30.01,WSW,240,0.0,2.0,86,0.00,,OVC024,0.01,VWS V14.01,2013-05-30 15:10:00,
2013-05-30 08:12:00,49.6,45.6,30.01,WSW,240,1.0,1.0,86,0.00,,OVC024,0.01,VWS V14.01,2013-05-30 15:12:00,
2013-05-30 08:13:00,49.6,45.6,30.01,WSW,240,0.0,1.0,86,0.00,,OVC024,0.01,VWS V14.01,2013-05-30 15:13:00,
2013-05-30 08:15:00,49.8,46.1,30.02,WSW,257,0.0,1.0,87,0.00,,OVC024,0.01,VWS V14.01,2013-05-30 15:15:00,
2013-05-30 08:16:00,49.8,46.1,30.02,WSW,257,0.0,1.0,87,0.00,,OVC024,0.01,VWS V14.01,2013-05-30 15:16:00,
2013-05-30 08:18:00,49.8,45.8,30.02,SW,219,0.0,9.0,86,0.00,,OVC024,0.01,VWS V14.01,2013-05-30 15:18:00,
2013-05-30 08:19:00,49.8,45.8,30.02,West,260,0.0,9.0,86,0.00,,OVC024,0.01,VWS V14.01,2013-05-30 15:19:00,
2013-05-30 08:21:00,49.8,45.8,30.02,SW,230,2.0,8.0,86,0.00,,OVC024,0.01,VWS V14.01,2013-05-30 15:21:00,
2013-05-30 08:22:00,49.8,45.8,30.02,SSW,206,1.0,8.0,86,0.00,,OVC024,0.01,VWS V14.01,2013-05-30 15:22:00,
2013-05-30 08:23:00,49.8,45.5,30.02,SW,217,2.0,8.0,85,0.00,,OVC024,0.01,VWS V14.01,2013-05-30 15:23:00,
2013-05-30 08:24:00,49.8,45.5,30.02,SW,219,1.0,8.0,85,0.00,,OVC024,0.01,VWS V14.01,2013-05-30 15:24:00,
2013-05-30 08:27:00,49.9,45.6,30.02,South,178,1.0,11.0,85,0.00,,OVC024,0.01,VWS V14.01,2013-05-30 15:27:00,
2013-05-30 08:28:00,49.9,45.3,30.02,SW,224,0.0,11.0,84,0.00,,OVC024,0.01,VWS V14.01,2013-05-30 15:28:00,
2013-05-30 08:29:00,49.9,45.3,30.02,SW,232,2.0,11.0,84,0.00,,OVC024,0.01,VWS V14.01,2013-05-30 15:29:00,
2013-05-30 08:31:00,50.1,45.5,30.02,SW,232,0.0,0.0,84,0.00,,OVC024,0.01,VWS V14.01,2013-05-30 15:31:00,
2013-05-30 08:33:00,50.2,45.6,30.02,SW,232,0.0,0.0,84,0.00,,OVC024,0.01,VWS V14.01,2013-05-30 15:33:00,
2013-05-30 08:35:00,50.2,45.6,30.02,South,184,5.0,5.0,84,0.00,,OVC024,0.01,VWS V14.01,2013-05-30 15:35:00,
2013-05-30 08:36:00,50.2,45.6,30.02,WSW,239,5.0,5.0,84,0.00,,OVC024,0.01,VWS V14.01,2013-05-30 15:36:00,
2013-05-30 08:37:00,50.2,45.2,30.02,SSW,199,3.0,5.0,83,0.00,,OVC024,0.01,VWS V14.01,2013-05-30 15:37:00,
2013-05-30 08:41:00,50.4,45.4,30.02,SSW,203,0.0,5.0,83,0.00,,OVC024,0.01,VWS V14.01,2013-05-30 15:41:00,
2013-05-30 08:43:00,50.5,45.5,30.02,SW,219,3.0,4.0,83,0.00,,OVC024,0.01,VWS V14.01,2013-05-30 15:43:00,
2013-05-30 08:46:00,50.5,45.5,30.02,WSW,239,4.0,6.0,83,0.00,,OVC024,0.01,VWS V14.01,2013-05-30 15:46:00,
2013-05-30 08:48:00,50.7,45.4,30.02,WSW,239,0.0,0.0,82,0.00,,OVC024,0.01,VWS V14.01,2013-05-30 15:48:00,
2013-05-30 08:50:00,50.7,45.4,30.02,SW,224,3.0,7.0,82,0.00,,OVC024,0.01,VWS V14.01,2013-05-30 15:50:00,
2013-05-30 08:51:00,50.7,45.4,30.02,SSW,195,6.0,7.0,82,0.00,,OVC024,0.01,VWS V14.01,2013-05-30 15:51:00,
2013-05-30 08:54:00,50.8,45.5,30.02,SE,130,0.0,6.0,82,0.00,,OVC024,0.01,VWS V14.01,2013-05-30 15:54:00,
2013-05-30 08:55:00,50.8,45.5,30.02,SW,234,2.0,6.0,82,0.00,,OVC024,0.01,VWS V14.01,2013-05-30 15:55:00,
2013-05-30 08:56:00,50.8,45.2,30.02,SW,234,0.0,6.0,81,0.00,,OVC024,0.01,VWS V14.01,2013-05-30 15:56:00,
2013-05-30 08:57:00,51.0,45.4,30.02,SW,229,1.0,3.0,81,0.00,,OVC024,0.01,VWS V14.01,2013-05-30 15:57:00,
2013-05-30 09:00:00,51.1,46.1,30.02,SW,229,2.0,3.0,83,0.00,,OVC024,0.01,VWS V14.01,2013-05-30 16:00:00,
2013-05-30 09:01:00,51.3,46.3,30.02,SW,224,1.0,3.0,83,0.00,,OVC037,0.01,VWS V14.01,2013-05-30 16:01:00,
2013-05-30 09:06:00,51.3,45.3,30.02,SSW,200,0.0,14.0,80,0.00,,OVC037,0.01,VWS V14.01,2013-05-30 16:06:00,
2013-05-30 09:07:00,51.3,45.3,30.02,SSW,200,0.0,0.0,80,0.00,,OVC037,0.01,VWS V14.01,2013-05-30 16:07:00,
2013-05-30 09:11:00,51.4,45.5,30.02,SSW,213,2.0,7.0,80,0.00,,OVC037,0.01,VWS V14.01,2013-05-30 16:11:00,
2013-05-30 09:12:00,51.4,45.5,30.02,SW,219,3.0,4.0,80,0.00,,OVC037,0.01,VWS V14.01,2013-05-30 16:12:00,
2013-05-30 09:14:00,51.4,45.5,30.02,SSE,168,1.0,8.0,80,0.00,,OVC037,0.01,VWS V14.01,2013-05-30 16:14:00,
2013-05-30 09:16:00,51.4,45.5,30.03,SSE,168,2.0,8.0,80,0.00,,OVC037,0.01,VWS V14.01,2013-05-30 16:16:00,
2013-05-30 09:17:00,51.4,45.5,30.03,WSW,251,1.0,6.0,80,0.00,,OVC037,0.01,VWS V14.01,2013-05-30 16:17:00,
2013-05-30 09:19:00,51.6,46.0,30.03,WSW,251,0.0,6.0,81,0.00,,OVC037,0.01,VWS V14.01,2013-05-30 16:19:00,
2013-05-30 09:20:00,51.7,46.4,30.03,WSW,251,0.0,6.0,82,0.00,,OVC037,0.01,VWS V14.01,2013-05-30 16:20:00,
2013-05-30 09:22:00,51.9,46.9,30.03,WSW,251,0.0,0.0,83,0.00,,OVC037,0.01,VWS V14.01,2013-05-30 16:22:00,
2013-05-30 09:25:00,52.0,47.0,30.03,WSW,251,0.0,2.0,83,0.00,,OVC037,0.01,VWS V14.01,2013-05-30 16:25:00,
2013-05-30 09:26:00,52.2,47.2,30.03,SSW,208,0.0,2.0,83,0.00,,OVC037,0.01,VWS V14.01,2013-05-30 16:26:00,
2013-05-30 09:27:00,52.2,47.2,30.03,SSW,208,2.0,2.0,83,0.00,,OVC037,0.01,VWS V14.01,2013-05-30 16:27:00,
2013-05-30 09:29:00,52.2,46.9,30.03,South,189,2.0,3.0,82,0.00,,OVC037,0.01,VWS V14.01,2013-05-30 16:29:00,
2013-05-30 09:30:00,52.2,46.9,30.03,South,189,0.0,3.0,82,0.00,,OVC037,0.01,VWS V14.01,2013-05-30 16:30:00,
2013-05-30 09:32:00,52.2,46.5,30.03,SSE,162,0.0,6.0,81,0.00,,OVC037,0.01,VWS V14.01,2013-05-30 16:32:00,
2013-05-30 09:33:00,52.2,46.5,30.03,SSE,162,0.0,6.0,81,0.00,,OVC037,0.01,VWS V14.01,2013-05-30 16:33:00,
2013-05-30 09:36:00,52.3,46.7,30.03,SSE,162,3.0,6.0,81,0.00,,OVC037,0.01,VWS V14.01,2013-05-30 16:36:00,
2013-05-30 09:38:00,52.3,46.0,30.03,SW,226,7.0,10.0,79,0.00,,OVC037,0.01,VWS V14.01,2013-05-30 16:38:00,
2013-05-30 09:39:00,52.3,45.7,30.03,SSW,200,0.0,10.0,78,0.00,,OVC037,0.01,VWS V14.01,2013-05-30 16:39:00,
2013-05-30 09:42:00,52.5,45.8,30.03,SSW,199,0.0,2.0,78,0.00,,OVC037,0.01,VWS V14.01,2013-05-30 16:42:00,
2013-05-30 09:43:00,52.6,46.3,30.03,WSW,240,3.0,5.0,79,0.00,,OVC037,0.01,VWS V14.01,2013-05-30 16:43:00,
2013-05-30 09:44:00,52.8,46.5,30.03,WSW,246,0.0,5.0,79,0.00,,OVC037,0.01,VWS V14.01,2013-05-30 16:44:00,
2013-05-30 09:45:00,52.9,46.6,30.03,WSW,239,4.0,7.0,79,0.00,,OVC037,0.01,VWS V14.01,2013-05-30 16:45:00,
2013-05-30 09:46:00,52.9,45.9,30.02,SW,224,0.0,7.0,77,0.00,,OVC037,0.01,VWS V14.01,2013-05-30 16:46:00,
2013-05-30 09:48:00,53.1,46.1,30.02,SW,220,2.0,6.0,77,0.00,,OVC037,0.01,VWS V14.01,2013-05-30 16:48:00,
2013-05-30 09:50:00,53.2,45.8,30.02,WSW,250,0.0,6.0,76,0.00,,OVC037,0.01,VWS V14.01,2013-05-30 16:50:00,
2013-05-30 09:51:00,53.3,46.3,30.02,SSE,162,3.0,6.0,77,0.00,,OVC037,0.01,VWS V14.01,2013-05-30 16:51:00,
2013-05-30 09:52:00,53.3,45.9,30.02,South,176,0.0,3.0,76,0.00,,OVC037,0.01,VWS V14.01,2013-05-30 16:52:00,
2013-05-30 09:54:00,53.6,46.2,30.02,South,176,0.0,3.0,76,0.00,,OVC037,0.01,VWS V14.01,2013-05-30 16:54:00,
2013-05-30 09:55:00,53.8,46.4,30.02,South,176,0.0,3.0,76,0.00,,OVC037,0.01,VWS V14.01,2013-05-30 16:55:00,
2013-05-30 09:57:00,54.1,46.7,30.02,South,176,2.0,2.0,76,0.00,,OVC037,0.01,VWS V14.01,2013-05-30 16:57:00,
2013-05-30 09:58:00,54.2,46.8,30.02,SE,128,0.0,3.0,76,0.00,,OVC037,0.01,VWS V14.01,2013-05-30 16:58:00,
2013-05-30 10:00:00,54.5,47.5,30.02,SSW,195,1.0,3.0,77,0.00,,OVC037,0.01,VWS V14.01,2013-05-30 17:00:00,
2013-05-30 10:01:00,54.7,47.3,30.02,SSW,195,2.0,3.0,76,0.00,,OVC065,0.01,VWS V14.01,2013-05-30 17:01:00,
2013-05-30 10:06:00,54.8,46.3,30.02,SE,140,5.0,6.0,73,0.00,,OVC065,0.01,VWS V14.01,2013-05-30 17:06:00,
2013-05-30 10:08:00,54.8,45.6,30.02,WSW,240,3.0,6.0,71,0.00,,OVC065,0.01,VWS V14.01,2013-05-30 17:08:00,
2013-05-30 10:09:00,54.7,45.5,30.02,WSW,246,2.0,6.0,71,0.00,,OVC065,0.01,VWS V14.01,2013-05-30 17:09:00,
2013-05-30 10:11:00,54.7,45.5,30.02,WSW,246,0.0,6.0,71,0.00,,OVC065,0.01,VWS V14.01,2013-05-30 17:11:00,
2013-05-30 10:12:00,54.7,46.2,30.02,WSW,246,0.0,0.0,73,0.00,,OVC065,0.01,VWS V14.01,2013-05-30 17:12:00,
2013-05-30 10:15:00,54.5,46.0,30.02,West,271,4.0,4.0,73,0.00,,OVC065,0.01,VWS V14.01,2013-05-30 17:15:00,
2013-05-30 10:17:00,54.5,46.0,30.03,WSW,239,0.0,2.0,73,0.00,,OVC065,0.01,VWS V14.01,2013-05-30 17:17:00,
2013-05-30 10:19:00,54.7,46.6,30.03,WSW,239,2.0,2.0,74,0.00,,OVC065,0.01,VWS V14.01,2013-05-30 17:19:00,
2013-05-30 10:20:00,54.5,46.0,30.03,WSW,254,2.0,5.0,73,0.00,,OVC065,0.01,VWS V14.01,2013-05-30 17:20:00,
2013-05-30 10:21:00,54.5,46.0,30.03,WSW,254,0.0,5.0,73,0.00,,OVC065,0.01,VWS V14.01,2013-05-30 17:21:00,
2013-05-30 10:22:00,54.5,46.0,30.03,WSW,254,0.0,1.0,73,0.00,,OVC065,0.01,VWS V14.01,2013-05-30 17:22:00,
2013-05-30 10:23:00,54.5,45.7,30.03,WSW,254,0.0,1.0,72,0.00,,OVC065,0.01,VWS V14.01,2013-05-30 17:23:00,
2013-05-30 10:26:00,54.4,45.2,30.03,SW,220,0.0,6.0,71,0.00,,OVC065,0.01,VWS V14.01,2013-05-30 17:26:00,
2013-05-30 10:28:00,54.4,45.6,30.03,SW,220,0.0,0.0,72,0.00,,OVC065,0.01,VWS V14.01,2013-05-30 17:28:00,
2013-05-30 10:29:00,54.4,45.6,30.03,SW,220,0.0,0.0,72,0.00,,OVC065,0.01,VWS V14.01,2013-05-30 17:29:00,
2013-05-30 10:30:00,54.4,45.9,30.03,SSW,208,0.0,3.0,73,0.00,,OVC065,0.01,VWS V14.01,2013-05-30 17:30:00,
2013-05-30 10:31:00,54.4,45.6,30.03,SSW,208,0.0,3.0,72,0.00,,OVC065,0.01,VWS V14.01,2013-05-30 17:31:00,
2013-05-30 10:35:00,54.7,46.6,30.03,SSW,208,0.0,0.0,74,0.00,,OVC065,0.01,VWS V14.01,2013-05-30 17:35:00,
2013-05-30 10:36:00,54.8,46.7,30.03,SSW,208,0.0,1.0,74,0.00,,OVC065,0.01,VWS V14.01,2013-05-30 17:36:00,
2013-05-30 10:40:00,54.8,46.3,30.03,SE,138,0.0,6.0,73,0.00,,OVC065,0.01,VWS V14.01,2013-05-30 17:40:00,
2013-05-30 10:41:00,54.8,46.0,30.03,SE,138,1.0,6.0,72,0.00,,OVC065,0.01,VWS V14.01,2013-05-30 17:41:00,
2013-05-30 10:44:00,55.0,46.2,30.03,South,174,2.0,5.0,72,0.00,,OVC065,0.01,VWS V14.01,2013-05-30 17:44:00,
2013-05-30 10:45:00,55.0,46.2,30.03,South,175,1.0,5.0,72,0.00,,OVC065,0.01,VWS V14.01,2013-05-30 17:45:00,
2013-05-30 10:46:00,55.0,46.5,30.03,South,182,2.0,5.0,73,0.00,,OVC065,0.01,VWS V14.01,2013-05-30 17:46:00,
2013-05-30 10:47:00,55.0,46.5,30.03,South,186,3.0,3.0,73,0.00,,OVC065,0.01,VWS V14.01,2013-05-30 17:47:00,
2013-05-30 10:50:00,54.8,46.3,30.03,SE,128,0.0,3.0,73,0.00,,OVC065,0.01,VWS V14.01,2013-05-30 17:50:00,
2013-05-30 10:51:00,54.8,46.3,30.03,SE,128,0.0,3.0,73,0.00,,OVC065,0.01,VWS V14.01,2013-05-30 17:51:00,
2013-05-30 10:54:00,55.0,47.6,30.03,South,191,2.0,2.0,76,0.00,,OVC065,0.01,VWS V14.01,2013-05-30 17:54:00,
2013-05-30 10:55:00,55.1,47.7,30.03,South,191,0.0,2.0,76,0.00,,OVC065,0.01,VWS V14.01,2013-05-30 17:55:00,
2013-05-30 10:56:00,55.1,47.7,30.03,WSW,244,4.0,4.0,76,0.00,,OVC065,0.01,VWS V14.01,2013-05-30 17:56:00,
2013-05-30 10:57:00,55.1,47.3,30.03,SW,227,0.0,4.0,75,0.00,,OVC065,0.01,VWS V14.01,2013-05-30 17:57:00,
2013-05-30 11:01:00,55.0,46.9,30.04,SW,230,0.0,4.0,74,0.00,,OVC075,0.01,VWS V14.01,2013-05-30 18:01:00,
2013-05-30 11:02:00,55.0,46.5,30.04,SW,230,0.0,0.0,73,0.00,,OVC075,0.01,VWS V14.01,2013-05-30 18:02:00,
2013-05-30 11:04:00,55.0,46.5,30.04,SW,230,2.0,2.0,73,0.00,,OVC075,0.01,VWS V14.01,2013-05-30 18:04:00,
2013-05-30 11:05:00,55.0,46.2,30.04,South,186,2.0,3.0,72,0.00,,OVC075,0.01,VWS V14.01,2013-05-30 18:05:00,
2013-05-30 11:07:00,55.0,46.5,30.04,South,186,0.0,0.0,73,0.00,,OVC075,0.01,VWS V14.01,2013-05-30 18:07:00,
2013-05-30 11:08:00,55.1,47.0,30.04,South,186,2.0,2.0,74,0.00,,OVC075,0.01,VWS V14.01,2013-05-30 18:08:00,
2013-05-30 11:10:00,55.1,46.6,30.04,SSE,165,2.0,2.0,73,0.00,,OVC075,0.01,VWS V14.01,2013-05-30 18:10:00,
2013-05-30 11:11:00,55.3,46.1,30.04,South,171,1.0,2.0,71,0.00,,OVC075,0.01,VWS V14.01,2013-05-30 18:11:00,
2013-05-30 11:12:00,55.4,45.8,30.04,South,179,1.0,2.0,70,0.00,,OVC075,0.01,VWS V14.01,2013-05-30 18:12:00,
2013-05-30 11:13:00,55.6,45.6,30.04,SSW,192,0.0,3.0,69,0.00,,OVC075,0.01,VWS V14.01,2013-05-30 18:13:00,
2013-05-30 11:15:00,55.7,45.3,30.04,SW,224,2.0,5.0,68,0.00,,OVC075,0.01,VWS V14.01,2013-05-30 18:15:00,
2013-05-30 11:18:00,56.2,45.8,30.04,SW,219,0.0,2.0,68,0.00,,OVC075,0.01,VWS V14.01,2013-05-30 18:18:00,
2013-05-30 11:20:00,56.3,45.9,30.04,ESE,107,1.0,8.0,68,0.00,,OVC075,0.01,VWS V14.01,2013-05-30 18:20:00,
2013-05-30 11:22:00,56.3,45.1,30.04,SSW,192,0.0,3.0,66,0.00,,OVC075,0.01,VWS V14.01,2013-05-30 18:22:00,
2013-05-30 11:25:00,56.7,45.1,30.04,SSW,203,0.0,10.0,65,0.00,,OVC075,0.01,VWS V14.01,2013-05-30 18:25:00,
2013-05-30 11:26:00,56.7,45.5,30.04,SSW,205,0.0,10.0,66,0.00,,OVC075,0.01,VWS V14.01,2013-05-30 18:26:00,
2013-05-30 11:29:00,57.3,46.5,30.04,South,171,2.0,8.0,67,0.00,,OVC075,0.01,VWS V14.01,2013-05-30 18:29:00,
2013-05-30 11:31:00,57.2,44.3,30.04,SSE,167,1.0,1.0,62,0.00,,OVC075,0.01,VWS V14.01,2013-05-30 18:31:00,
2013-05-30 11:32:00,57.2,44.3,30.04,WSW,243,3.0,5.0,62,0.00,,OVC075,0.01,VWS V14.01,2013-05-30 18:32:00,
2013-05-30 11:33:00,57.2,43.9,30.04,SW,227,2.0,5.0,61,0.00,,OVC075,0.01,VWS V14.01,2013-05-30 18:33:00,
2013-05-30 11:36:00,57.0,44.5,30.04,West,264,1.0,1.0,63,0.00,,OVC075,0.01,VWS V14.01,2013-05-30 18:36:00,
2013-05-30 11:37:00,57.0,44.5,30.04,WSW,239,1.0,6.0,63,0.00,,OVC075,0.01,VWS V14.01,2013-05-30 18:37:00,
2013-05-30 11:39:00,56.9,44.5,30.04,SSW,203,6.0,6.0,63,0.00,,OVC075,0.01,VWS V14.01,2013-05-30 18:39:00,
2013-05-30 11:41:00,56.7,44.3,30.04,SW,234,5.0,5.0,63,0.00,,OVC075,0.01,VWS V14.01,2013-05-30 18:41:00,
2013-05-30 11:42:00,56.6,44.6,30.04,WSW,246,2.0,5.0,64,0.00,,OVC075,0.01,VWS V14.01,2013-05-30 18:42:00,
2013-05-30 11:44:00,56.5,44.5,30.04,WSW,246,0.0,5.0,64,0.00,,OVC075,0.01,VWS V14.01,2013-05-30 18:44:00,
2013-05-30 11:45:00,56.5,44.9,30.04,WSW,246,2.0,5.0,65,0.00,,OVC075,0.01,VWS V14.01,2013-05-30 18:45:00,
2013-05-30 11:49:00,56.3,45.5,30.04,WSW,250,0.0,0.0,67,0.00,,OVC075,0.01,VWS V14.01,2013-05-30 18:49:00,
2013-05-30 11:50:00,56.3,45.9,30.04,WSW,250,0.0,0.0,68,0.00,,OVC075,0.01,VWS V14.01,2013-05-30 18:50:00,
2013-05-30 11:51:00,56.3,45.9,30.04,WSW,250,0.0,1.0,68,0.00,,OVC075,0.01,VWS V14.01,2013-05-30 18:51:00,
2013-05-30 11:52:00,56.3,45.5,30.04,WSW,250,0.0,1.0,67,0.00,,OVC075,0.01,VWS V14.01,2013-05-30 18:52:00,
2013-05-30 11:54:00,56.3,46.3,30.04,WNW,288,2.0,3.0,69,0.00,,OVC075,0.01,VWS V14.01,2013-05-30 18:54:00,
2013-05-30 11:56:00,56.5,45.7,30.04,WNW,288,0.0,1.0,67,0.00,,OVC075,0.01,VWS V14.01,2013-05-30 18:56:00,
2013-05-30 11:57:00,56.6,46.2,30.04,SSE,158,1.0,2.0,68,0.00,,OVC075,0.01,VWS V14.01,2013-05-30 18:57:00,
2013-05-30 11:59:00,56.9,46.1,30.04,WNW,284,3.0,7.0,67,0.00,,OVC075,0.01,VWS V14.01,2013-05-30 18:59:00,
2013-05-30 12:00:00,57.0,45.4,30.04,South,186,0.0,7.0,65,0.00,,OVC075,0.01,VWS V14.01,2013-05-30 19:00:00,
2013-05-30 12:02:00,57.5,46.6,30.04,SW,220,4.0,6.0,67,0.00,,BKN037,0.01,VWS V14.01,2013-05-30 19:02:00,
2013-05-30 12:05:00,57.6,44.3,30.04,WSW,250,0.0,9.0,61,0.00,,BKN037,0.01,VWS V14.01,2013-05-30 19:05:00,
2013-05-30 12:06:00,57.6,44.3,30.04,WSW,250,1.0,2.0,61,0.00,,BKN037,0.01,VWS V14.01,2013-05-30 19:06:00,
2013-05-30 12:07:00,57.8,44.5,30.04,ESE,123,2.0,3.0,61,0.00,,BKN037,0.01,VWS V14.01,2013-05-30 19:07:00,
2013-05-30 12:08:00,57.8,44.0,30.04,SE,136,1.0,5.0,60,0.00,,BKN037,0.01,VWS V14.01,2013-05-30 19:08:00,
2013-05-30 12:10:00,57.8,44.9,30.04,East,95,3.0,5.0,62,0.00,,BKN037,0.01,VWS V14.01,2013-05-30 19:10:00,
2013-05-30 12:11:00,57.8,45.7,30.04,East,95,3.0,3.0,64,0.00,,BKN037,0.01,VWS V14.01,2013-05-30 19:11:00,
2013-05-30 12:12:00,57.8,45.3,30.04,East,95,0.0,3.0,63,0.00,,BKN037,0.01,VWS V14.01,2013-05-30 19:12:00,
2013-05-30 12:15:00,57.8,45.7,30.04,SSW,209,3.0,6.0,64,0.00,,BKN037,0.01,VWS V14.01,2013-05-30 19:15:00,
2013-05-30 12:17:00,57.8,44.9,30.04,East,88,4.0,4.0,62,0.00,,BKN037,0.01,VWS V14.01,2013-05-30 19:17:00,
2013-05-30 12:18:00,57.6,44.7,30.04,ESE,109,5.0,6.0,62,0.00,,BKN037,0.01,VWS V14.01,2013-05-30 19:18:00,
2013-05-30 12:20:00,57.8,46.5,30.04,ESE,110,2.0,6.0,66,0.00,,BKN037,0.01,VWS V14.01,2013-05-30 19:20:00,
2013-05-30 12:21:00,57.6,45.9,30.04,ENE,62,6.0,7.0,65,0.00,,BKN037,0.01,VWS V14.01,2013-05-30 19:21:00,
2013-05-30 12:22:00,57.5,45.0,30.04,ENE,72,0.0,7.0,63,0.00,,BKN037,0.01,VWS V14.01,2013-05-30 19:22:00,
2013-05-30 12:23:00,57.5,45.4,30.04,ENE,73,0.0,7.0,64,0.00,,BKN037,0.01,VWS V14.01,2013-05-30 19:23:00,
2013-05-30 12:24:00,57.5,46.6,30.04,ENE,73,0.0,7.0,67,0.00,,BKN037,0.01,VWS V14.01,2013-05-30 19:24:00,
2013-05-30 12:25:00,57.6,46.7,30.04,ENE,73,0.0,7.0,67,0.00,,BKN037,0.01,VWS V14.01,2013-05-30 19:25:00,
2013-05-30 12:29:00,57.5,46.2,30.04,ENE,73,0.0,2.0,66,0.00,,BKN037,0.01,VWS V14.01,2013-05-30 19:29:00,
2013-05-30 12:31:00,57.5,46.2,30.05,SSW,212,0.0,7.0,66,0.00,,BKN037,0.01,VWS V14.01,2013-05-30 19:31:00,
2013-05-30 12:34:00,57.5,46.6,30.05,SW,215,2.0,4.0,67,0.00,,BKN037,0.01,VWS V14.01,2013-05-30 19:34:00,
2013-05-30 12:35:00,57.5,46.2,30.05,SW,222,1.0,4.0,66,0.00,,BKN037,0.01,VWS V14.01,2013-05-30 19:35:00,
2013-05-30 12:36:00,57.5,46.2,30.05,SSW,212,8.0,10.0,66,0.00,,BKN037,0.01,VWS V14.01,2013-05-30 19:36:00,
2013-05-30 12:40:00,57.6,45.5,30.05,SW,222,2.0,10.0,64,0.00,,BKN037,0.01,VWS V14.01,2013-05-30 19:40:00,
2013-05-30 12:41:00,57.6,45.1,30.05,SW,222,1.0,10.0,63,0.00,,BKN037,0.01,VWS V14.01,2013-05-30 19:41:00,
2013-05-30 12:42:00,57.8,45.3,30.05,SW,234,1.0,3.0,63,0.00,,BKN037,0.01,VWS V14.01,2013-05-30 19:42:00,
2013-05-30 12:47:00,58.0,45.9,30.05,SSE,168,3.0,3.0,64,0.00,,BKN037,0.01,VWS V14.01,2013-05-30 19:47:00,
2013-05-30 12:48:00,58.0,45.5,30.05,ESE,120,2.0,4.0,63,0.00,,BKN037,0.01,VWS V14.01,2013-05-30 19:48:00,
2013-05-30 12:50:00,57.8,45.7,30.05,SW,216,0.0,6.0,64,0.00,,BKN037,0.01,VWS V14.01,2013-05-30 19:50:00,
2013-05-30 12:51:00,57.8,46.1,30.05,SW,216,0.0,6.0,65,0.00,,BKN037,0.01,VWS V14.01,2013-05-30 19:51:00,
2013-05-30 12:54:00,57.8,45.7,30.05,WNW,296,1.0,6.0,64,0.00,,BKN037,0.01,VWS V14.01,2013-05-30 19:54:00,
2013-05-30 12:56:00,57.8,45.3,30.05,WNW,296,1.0,6.0,63,0.00,,BKN037,0.01,VWS V14.01,2013-05-30 19:56:00,
2013-05-30 12:57:00,57.8,45.3,30.05,WNW,296,0.0,2.0,63,0.00,,BKN037,0.01,VWS V14.01,2013-05-30 19:57:00,
2013-05-30 12:58:00,57.8,46.5,30.05,WNW,296,0.0,2.0,66,0.00,,BKN037,0.01,VWS V14.01,2013-05-30 19:58:00,
2013-05-30 13:00:00,58.0,46.3,30.05,West,271,0.0,4.0,65,0.00,,SCT045,0.01,VWS V14.01,2013-05-30 20:00:00,
2013-05-30 13:02:00,58.0,46.3,30.05,SSE,150,0.0,6.0,65,0.00,,SCT045,0.01,VWS V14.01,2013-05-30 20:02:00,
2013-05-30 13:05:00,58.1,46.0,30.05,SW,226,1.0,7.0,64,0.00,,SCT045,0.01,VWS V14.01,2013-05-30 20:05:00,
2013-05-30 13:06:00,58.3,46.2,30.05,SSE,161,2.0,2.0,64,0.00,,SCT045,0.01,VWS V14.01,2013-05-30 20:06:00,
2013-05-30 13:07:00,58.6,46.9,30.05,SSW,202,3.0,4.0,65,0.00,,SCT045,0.01,VWS V14.01,2013-05-30 20:07:00,
2013-05-30 13:09:00,59.0,45.6,30.05,West,260,1.0,4.0,61,0.00,,SCT045,0.01,VWS V14.01,2013-05-30 20:09:00,
2013-05-30 13:11:00,59.6,45.7,30.05,ESE,107,3.0,4.0,60,0.00,,SCT045,0.01,VWS V14.01,2013-05-30 20:11:00,
2013-05-30 13:12:00,59.9,45.1,30.05,West,281,0.0,5.0,58,0.00,,SCT045,0.01,VWS V14.01,2013-05-30 20:12:00,
2013-05-30 13:14:00,60.1,44.8,30.05,ESE,114,2.0,5.0,57,0.00,,SCT045,0.01,VWS V14.01,2013-05-30 20:14:00,
2013-05-30 13:16:00,60.2,45.4,30.05,SSE,151,0.0,5.0,58,0.00,,SCT045,0.01,VWS V14.01,2013-05-30 20:16:00,
2013-05-30 13:18:00,60.2,45.4,30.05,SSE,161,0.0,2.0,58,0.00,,SCT045,0.01,VWS V14.01,2013-05-30 20:18:00,
2013-05-30 13:21:00,60.1,45.7,30.05,SW,236,4.0,6.0,59,0.00,,SCT045,0.01,VWS V14.01,2013-05-30 20:21:00,
2013-05-30 13:25:00,59.2,44.5,30.05,SSW,208,11.0,18.0,58,0.00,,SCT045,0.01,VWS V14.01,2013-05-30 20:25:00,
2013-05-30 13:26:00,58.7,44.9,30.05,South,179,5.0,18.0,60,0.00,,SCT045,0.01,VWS V14.01,2013-05-30 20:26:00,
2013-05-30 13:27:00,58.4,45.0,30.05,West,260,7.0,12.0,61,0.00,,SCT045,0.01,VWS V14.01,2013-05-30 20:27:00,
2013-05-30 13:30:00,57.6,45.5,30.05,SSW,212,8.0,16.0,64,0.00,,SCT045,0.01,VWS V14.01,2013-05-30 20:30:00,
2013-05-30 13:31:00,57.2,46.0,30.06,WNW,285,3.0,16.0,66,0.00,,SCT045,0.01,VWS V14.01,2013-05-30 20:31:00,
2013-05-30 13:32:00,57.0,45.8,30.06,SW,233,5.0,6.0,66,0.00,,SCT045,0.01,VWS V14.01,2013-05-30 20:32:00,
2013-05-30 13:33:00,56.9,45.7,30.06,WSW,250,4.0,7.0,66,0.00,,SCT045,0.01,VWS V14.01,2013-05-30 20:33:00,
2013-05-30 13:36:00,56.3,45.9,30.06,WSW,241,3.0,8.0,68,0.00,,SCT045,0.01,VWS V14.01,2013-05-30 20:36:00,
2013-05-30 13:37:00,56.2,45.8,30.06,WSW,241,1.0,3.0,68,0.00,,SCT045,0.01,VWS V14.01,2013-05-30 20:37:00,
2013-05-30 13:38:00,56.0,45.2,30.06,WSW,248,1.0,3.0,67,0.00,,SCT045,0.01,VWS V14.01,2013-05-30 20:38:00,
2013-05-30 13:40:00,55.7,44.5,30.06,West,264,7.0,10.0,66,0.00,,SCT045,0.01,VWS V14.01,2013-05-30 20:40:00,
2013-05-30 13:43:00,55.6,45.2,30.06,SW,219,0.0,6.0,68,0.00,,SCT045,0.01,VWS V14.01,2013-05-30 20:43:00,
2013-05-30 13:44:00,55.4,45.4,30.06,SW,219,0.0,6.0,69,0.00,,SCT045,0.01,VWS V14.01,2013-05-30 20:44:00,
2013-05-30 13:45:00,55.4,46.2,30.06,SW,219,0.0,6.0,71,0.00,,SCT045,0.01,VWS V14.01,2013-05-30 20:45:00,
2013-05-30 13:47:00,55.4,46.9,30.07,South,174,0.0,0.0,73,0.00,,SCT045,0.01,VWS V14.01,2013-05-30 20:47:00,
2013-05-30 13:49:00,55.4,46.5,30.07,SW,234,0.0,4.0,72,0.00,,SCT045,0.01,VWS V14.01,2013-05-30 20:49:00,
2013-05-30 13:50:00,55.4,46.9,30.07,SW,234,0.0,4.0,73,0.00,,SCT045,0.01,VWS V14.01,2013-05-30 20:50:00,
2013-05-30 13:51:00,55.6,47.1,30.07,SW,234,1.0,4.0,73,0.00,,SCT045,0.01,VWS V14.01,2013-05-30 20:51:00,
2013-05-30 13:56:00,55.6,46.4,30.07,SW,226,2.0,5.0,71,0.00,,SCT045,0.01,VWS V14.01,2013-05-30 20:56:00,
2013-05-30 13:57:00,55.6,46.0,30.07,SSE,164,2.0,3.0,70,0.00,,SCT045,0.01,VWS V14.01,2013-05-30 20:57:00,
2013-05-30 14:00:00,55.6,44.8,30.07,SW,234,2.0,7.0,67,0.00,,SCT045,0.01,VWS V14.01,2013-05-30 21:00:00,
2013-05-30 14:01:00,55.7,45.3,30.07,SW,234,0.0,7.0,68,0.00,,BKN085,0.01,VWS V14.01,2013-05-30 21:01:00,
2013-05-30 14:02:00,55.7,44.9,30.07,SW,234,1.0,1.0,67,0.00,,BKN085,0.01,VWS V14.01,2013-05-30 21:02:00,
2013-05-30 14:03:00,55.9,45.5,30.07,WSW,244,1.0,5.0,68,0.00,,BKN085,0.01,VWS V14.01,2013-05-30 21:03:00,
2013-05-30 14:05:00,56.2,45.8,30.07,WSW,243,0.0,5.0,68,0.00,,BKN085,0.01,VWS V14.01,2013-05-30 21:05:00,
2013-05-30 14:06:00,56.2,45.4,30.07,WSW,243,0.0,5.0,67,0.00,,BKN085,0.01,VWS V14.01,2013-05-30 21:06:00,
2013-05-30 14:07:00,56.3,45.1,30.07,WSW,243,0.0,1.0,66,0.00,,BKN085,0.01,VWS V14.01,2013-05-30 21:07:00,
2013-05-30 14:09:00,56.5,44.9,30.07,SW,226,4.0,4.0,65,0.00,,BKN085,0.01,VWS V14.01,2013-05-30 21:09:00,
2013-05-30 14:10:00,56.5,44.9,30.07,WNW,295,3.0,4.0,65,0.00,,BKN085,0.01,VWS V14.01,2013-05-30 21:10:00,
2013-05-30 14:11:00,56.6,45.8,30.07,WNW,298,0.0,4.0,67,0.00,,BKN085,0.01,VWS V14.01,2013-05-30 21:11:00,
2013-05-30 14:16:00,57.0,45.4,30.07,SW,232,3.0,5.0,65,0.00,,BKN085,0.01,VWS V14.01,2013-05-30 21:16:00,
2013-05-30 14:18:00,57.2,45.2,30.07,NW,319,0.0,3.0,64,0.00,,BKN085,0.01,VWS V14.01,2013-05-30 21:18:00,
2013-05-30 14:21:00,57.6,46.3,30.07,NW,319,0.0,3.0,66,0.00,,BKN085,0.01,VWS V14.01,2013-05-30 21:21:00,
2013-05-30 14:25:00,57.6,45.9,30.07,South,188,1.0,6.0,65,0.00,,BKN085,0.01,VWS V14.01,2013-05-30 21:25:00,
2013-05-30 14:26:00,57.6,45.9,30.07,WSW,244,6.0,6.0,65,0.00,,BKN085,0.01,VWS V14.01,2013-05-30 21:26:00,
2013-05-30 14:28:00,57.5,45.8,30.07,South,172,4.0,11.0,65,0.00,,BKN085,0.01,VWS V14.01,2013-05-30 21:28:00,
2013-05-30 14:30:00,57.3,45.7,30.07,SW,224,0.0,11.0,65,0.00,,BKN085,0.01,VWS V14.01,2013-05-30 21:30:00,
2013-05-30 14:31:00,57.3,46.0,30.07,SW,224,0.0,11.0,66,0.00,,BKN085,0.01,VWS V14.01,2013-05-30 21:31:00,
2013-05-30 14:34:00,57.3,46.5,30.07,SSE,167,1.0,6.0,67,0.00,,BKN085,0.01,VWS V14.01,2013-05-30 21:34:00,
2013-05-30 14:36:00,57.2,46.4,30.07,SSE,161,2.0,11.0,67,0.00,,BKN085,0.01,VWS V14.01,2013-05-30 21:36:00,
2013-05-30 14:40:00,57.2,46.4,30.07,SSW,192,2.0,11.0,67,0.00,,BKN085,0.01,VWS V14.01,2013-05-30 21:40:00,
2013-05-30 14:42:00,57.2,46.4,30.07,SSW,210,3.0,4.0,67,0.00,,BKN085,0.01,VWS V14.01,2013-05-30 21:42:00,
2013-05-30 14:44:00,57.2,46.8,30.07,SW,229,6.0,8.0,68,0.00,,BKN085,0.01,VWS V14.01,2013-05-30 21:44:00,
2013-05-30 14:46:00,57.2,46.8,30.07,SW,234,7.0,8.0,68,0.00,,BKN085,0.01,VWS V14.01,2013-05-30 21:46:00,
2013-05-30 14:47:00,57.2,47.1,30.07,SSE,168,5.0,6.0,69,0.00,,BKN085,0.01,VWS V14.01,2013-05-30 21:47:00,
2013-05-30 14:51:00,57.5,47.4,30.07,WSW,258,7.0,7.0,69,0.00,,BKN085,0.01,VWS V14.01,2013-05-30 21:51:00,
2013-05-30 14:52:00,57.5,47.0,30.07,WNW,289,0.0,5.0,68,0.00,,BKN085,0.01,VWS V14.01,2013-05-30 21:52:00,
2013-05-30 14:53:00,57.6,47.1,30.07,WNW,289,0.0,5.0,68,0.00,,BKN085,0.01,VWS V14.01,2013-05-30 21:53:00,
2013-05-30 14:56:00,57.8,46.1,30.07,South,182,0.0,5.0,65,0.00,,BKN085,0.01,VWS V14.01,2013-05-30 21:56:00,
2013-05-30 14:57:00,58.0,46.3,30.07,South,182,2.0,2.0,65,0.00,,BKN085,0.01,VWS V14.01,2013-05-30 21:57:00,
2013-05-30 15:00:00,58.1,46.0,30.07,SW,236,2.0,6.0,64,0.00,,BKN085,0.01,VWS V14.01,2013-05-30 22:00:00,
2013-05-30 15:01:00,58.3,46.2,30.07,SSW,212,6.0,6.0,64,0.00,,OVC100,0.01,VWS V14.01,2013-05-30 22:01:00,
2013-05-30 15:03:00,58.6,46.1,30.07,SSE,158,2.0,6.0,63,0.00,,OVC100,0.01,VWS V14.01,2013-05-30 22:03:00,
2013-05-30 15:06:00,58.7,45.3,30.07,SSW,212,1.0,7.0,61,0.00,,OVC100,0.01,VWS V14.01,2013-05-30 22:06:00,
2013-05-30 15:09:00,59.3,45.4,30.07,SSE,164,0.0,3.0,60,0.00,,OVC100,0.01,VWS V14.01,2013-05-30 22:09:00,
2013-05-30 15:11:00,59.8,46.3,30.07,SSW,193,0.0,5.0,61,0.00,,OVC100,0.01,VWS V14.01,2013-05-30 22:11:00,
2013-05-30 15:14:00,59.9,45.5,30.07,West,264,3.0,10.0,59,0.00,,OVC100,0.01,VWS V14.01,2013-05-30 22:14:00,
2013-05-30 15:16:00,59.8,45.5,30.07,South,178,0.0,12.0,59,0.00,,OVC100,0.01,VWS V14.01,2013-05-30 22:16:00,
2013-05-30 15:17:00,59.8,45.9,30.07,South,178,0.0,1.0,60,0.00,,OVC100,0.01,VWS V14.01,2013-05-30 22:17:00,
2013-05-30 15:18:00,59.8,45.9,30.07,SSW,202,3.0,6.0,60,0.00,,OVC100,0.01,VWS V14.01,2013-05-30 22:18:00,
2013-05-30 15:19:00,59.8,45.0,30.07,SSW,202,2.0,6.0,58,0.00,,OVC100,0.01,VWS V14.01,2013-05-30 22:19:00,
2013-05-30 15:20:00,59.6,45.3,30.07,SW,229,6.0,7.0,59,0.00,,OVC100,0.01,VWS V14.01,2013-05-30 22:20:00,
2013-05-30 15:22:00,59.6,44.8,30.07,SW,223,4.0,6.0,58,0.00,,OVC100,0.01,VWS V14.01,2013-05-30 22:22:00,
2013-05-30 15:24:00,59.5,45.6,30.07,SW,223,3.0,6.0,60,0.00,,OVC100,0.01,VWS V14.01,2013-05-30 22:24:00,
2013-05-30 15:25:00,59.5,45.6,30.07,WSW,241,6.0,8.0,60,0.00,,OVC100,0.01,VWS V14.01,2013-05-30 22:25:00,
2013-05-30 15:28:00,59.5,46.9,30.07,NNE,23,1.0,6.0,63,0.00,,OVC100,0.01,VWS V14.01,2013-05-30 22:28:00,
2013-05-30 15:31:00,59.8,46.8,30.07,ESE,119,2.0,6.0,62,0.00,,OVC100,0.01,VWS V14.01,2013-05-30 22:31:00,
2013-05-30 15:32:00,59.9,46.4,30.07,SSW,208,2.0,5.0,61,0.00,,OVC100,0.01,VWS V14.01,2013-05-30 22:32:00,
2013-05-30 15:33:00,59.9,46.9,30.07,SSW,213,5.0,5.0,62,0.00,,OVC100,0.01,VWS V14.01,2013-05-30 22:33:00,
2013-05-30 15:36:00,59.8,45.9,30.07,SW,232,8.0,11.0,60,0.00,,OVC100,0.01,VWS V14.01,2013-05-30 22:36:00,
2013-05-30 15:39:00,59.6,46.2,30.07,SW,227,0.0,10.0,61,0.00,,OVC100,0.01,VWS V14.01,2013-05-30 22:39:00,
2013-05-30 15:40:00,59.6,46.6,30.07,SSW,199,2.0,10.0,62,0.00,,OVC100,0.01,VWS V14.01,2013-05-30 22:40:00,
2013-05-30 15:41:00,59.6,45.7,30.07,SSW,213,5.0,10.0,60,0.00,,OVC100,0.01,VWS V14.01,2013-05-30 22:41:00,
2013-05-30 15:44:00,59.5,46.1,30.07,South,188,2.0,6.0,61,0.00,,OVC100,0.01,VWS V14.01,2013-05-30 22:44:00,
2013-05-30 15:45:00,59.5,45.6,30.07,South,172,2.0,6.0,60,0.00,,OVC100,0.01,VWS V14.01,2013-05-30 22:45:00,
2013-05-30 15:46:00,59.5,46.1,30.07,WSW,246,0.0,6.0,61,0.00,,OVC100,0.01,VWS V14.01,2013-05-30 22:46:00,
2013-05-30 15:48:00,59.5,46.5,30.07,WSW,237,2.0,5.0,62,0.00,,OVC100,0.01,VWS V14.01,2013-05-30 22:48:00,
2013-05-30 15:50:00,59.3,46.3,30.07,WNW,287,2.0,6.0,62,0.00,,OVC100,0.01,VWS V14.01,2013-05-30 22:50:00,
2013-05-30 15:51:00,59.3,47.1,30.07,WSW,254,0.0,6.0,64,0.00,,OVC100,0.01,VWS V14.01,2013-05-30 22:51:00,
2013-05-30 15:53:00,59.3,47.1,30.07,WNW,294,1.0,5.0,64,0.00,,OVC100,0.01,VWS V14.01,2013-05-30 22:53:00,
2013-05-30 15:54:00,59.3,46.7,30.07,WSW,241,3.0,5.0,63,0.00,,OVC100,0.01,VWS V14.01,2013-05-30 22:54:00,
2013-05-30 15:55:00,59.2,46.2,30.07,SSW,212,6.0,6.0,62,0.00,,OVC100,0.01,VWS V14.01,2013-05-30 22:55:00,
2013-05-30 15:56:00,59.2,46.2,30.07,WSW,239,6.0,6.0,62,0.00,,OVC100,0.01,VWS V14.01,2013-05-30 22:56:00,
2013-05-30 15:59:00,59.2,46.2,30.07,WSW,239,0.0,6.0,62,0.00,,OVC100,0.01,VWS V14.01,2013-05-30 22:59:00,
2013-05-30 16:02:00,59.0,46.4,30.07,SSW,203,1.0,4.0,63,0.00,,,0.01,VWS V14.01,2013-05-30 23:02:00,
2013-05-30 16:04:00,58.9,46.3,30.07,WSW,240,3.0,11.0,63,0.00,,,0.01,VWS V14.01,2013-05-30 23:04:00,
2013-05-30 16:06:00,58.9,47.2,30.07,WSW,239,3.0,11.0,65,0.00,,,0.01,VWS V14.01,2013-05-30 23:06:00,
2013-05-30 16:07:00,58.9,46.8,30.07,WSW,258,1.0,6.0,64,0.00,,,0.01,VWS V14.01,2013-05-30 23:07:00,
2013-05-30 16:08:00,59.0,47.3,30.07,WSW,258,1.0,6.0,65,0.00,,,0.01,VWS V14.01,2013-05-30 23:08:00,
2013-05-30 16:09:00,59.0,47.7,30.07,WNW,296,8.0,8.0,66,0.00,,,0.01,VWS V14.01,2013-05-30 23:09:00,
2013-05-30 16:10:00,59.0,46.8,30.07,SSW,202,5.0,8.0,64,0.00,,,0.01,VWS V14.01,2013-05-30 23:10:00,
2013-05-30 16:11:00,59.0,46.4,30.07,SW,236,4.0,8.0,63,0.00,,,0.01,VWS V14.01,2013-05-30 23:11:00,
2013-05-30 16:15:00,59.0,47.7,30.08,WSW,243,4.0,7.0,66,0.00,,,0.01,VWS V14.01,2013-05-30 23:15:00,
2013-05-30 16:16:00,59.0,47.3,30.08,WSW,256,1.0,7.0,65,0.00,,,0.01,VWS V14.01,2013-05-30 23:16:00,
2013-05-30 16:20:00,59.2,46.6,30.08,WNW,299,0.0,8.0,63,0.00,,,0.01,VWS V14.01,2013-05-30 23:20:00,
2013-05-30 16:21:00,59.2,47.0,30.08,SW,216,5.0,8.0,64,0.00,,,0.01,VWS V14.01,2013-05-30 23:21:00,
2013-05-30 16:23:00,59.0,46.4,30.08,SW,233,3.0,10.0,63,0.00,,,0.01,VWS V14.01,2013-05-30 23:23:00,
2013-05-30 16:26:00,58.9,46.8,30.08,SW,219,8.0,8.0,64,0.00,,,0.01,VWS V14.01,2013-05-30 23:26:00,
2013-05-30 16:28:00,58.9,46.8,30.08,West,274,1.0,11.0,64,0.00,,,0.01,VWS V14.01,2013-05-30 23:28:00,
2013-05-30 16:29:00,58.7,46.6,30.08,WSW,239,11.0,11.0,64,0.00,,,0.01,VWS V14.01,2013-05-30 23:29:00,
2013-05-30 16:30:00,58.6,46.5,30.08,West,265,11.0,12.0,64,0.00,,,0.01,VWS V14.01,2013-05-30 23:30:00,
2013-05-30 16:32:00,58.1,46.8,30.08,SW,220,4.0,14.0,66,0.00,,,0.01,VWS V14.01,2013-05-30 23:32:00,
2013-05-30 16:34:00,57.8,47.3,30.08,SSW,205,11.0,14.0,68,0.00,,,0.01,VWS V14.01,2013-05-30 23:34:00,
2013-05-30 16:37:00,57.5,47.4,30.08,SSW,199,1.0,7.0,69,0.00,,,0.01,VWS V14.01,2013-05-30 23:37:00,
2013-05-30 16:40:00,57.0,47.3,30.08,SSW,206,5.0,14.0,70,0.00,,,0.01,VWS V14.01,2013-05-30 23:40:00,
2013-05-30 16:41:00,57.0,47.7,30.08,SSW,200,5.0,14.0,71,0.00,,,0.01,VWS V14.01,2013-05-30 23:41:00,
2013-05-30 16:42:00,56.9,47.6,30.08,WSW,251,7.0,11.0,71,0.00,,,0.01,VWS V14.01,2013-05-30 23:42:00,
2013-05-30 16:43:00,56.7,47.0,30.08,SSW,209,6.0,11.0,70,0.00,,,0.01,VWS V14.01,2013-05-30 23:43:00,
2013-05-30 16:45:00,56.3,46.3,30.09,SSW,203,8.0,18.0,69,0.00,,,0.01,VWS V14.01,2013-05-30 23:45:00,
2013-05-30 16:46:00,56.2,46.2,30.09,WSW,246,7.0,12.0,69,0.00,,,0.01,VWS V14.01,2013-05-30 23:46:00,
2013-05-30 16:47:00,56.0,46.4,30.09,SW,236,7.0,12.0,70,0.00,,,0.01,VWS V14.01,2013-05-30 23:47:00,
2013-05-30 16:50:00,55.6,46.0,30.09,SW,217,13.0,19.0,70,0.00,,,0.01,VWS V14.01,2013-05-30 23:50:00,
2013-05-30 16:51:00,55.4,45.8,30.09,SSW,192,7.0,8.0,70,0.00,,,0.01,VWS V14.01,2013-05-30 23:51:00,
2013-05-30 16:52:00,55.3,45.7,30.09,WSW,244,2.0,12.0,70,0.00,,,0.01,VWS V14.01,2013-05-30 23:52:00,
2013-05-30 16:56:00,55.1,45.5,30.09,SW,232,10.0,13.0,70,0.00,,,0.01,VWS V14.01,2013-05-30 23:56:00,
2013-05-30 16:59:00,55.0,45.4,30.09,SW,236,13.0,18.0,70,0.00,,,0.01,VWS V14.01,2013-05-30 23:59:00,
2013-05-30 17:01:00,54.8,45.6,30.10,SW,219,7.0,18.0,71,0.00,,,0.01,VWS V14.01,2013-05-31 00:01:00,
2013-05-30 17:02:00,54.7,45.5,30.10,WSW,257,3.0,13.0,71,0.00,,,0.01,VWS V14.01,2013-05-31 00:02:00,
2013-05-30 17:03:00,54.7,46.2,30.10,SW,233,9.0,13.0,73,0.00,,,0.01,VWS V14.01,2013-05-31 00:03:00,
2013-05-30 17:05:00,54.7,46.2,30.10,SW,216,3.0,13.0,73,0.00,,,0.01,VWS V14.01,2013-05-31 00:05:00,
2013-05-30 17:07:00,54.5,46.0,30.10,South,179,3.0,7.0,73,0.00,,,0.01,VWS V14.01,2013-05-31 00:07:00,
2013-05-30 17:09:00,54.4,45.9,30.10,SSW,202,0.0,7.0,73,0.00,,,0.01,VWS V14.01,2013-05-31 00:09:00,
2013-05-30 17:10:00,54.4,46.3,30.10,SW,220,5.0,7.0,74,0.00,,,0.01,VWS V14.01,2013-05-31 00:10:00,
2013-05-30 17:11:00,54.4,46.3,30.10,WNW,294,0.0,8.0,74,0.00,,,0.01,VWS V14.01,2013-05-31 00:11:00,
2013-05-30 17:13:00,54.4,46.7,30.10,SSW,208,0.0,7.0,75,0.00,,,0.01,VWS V14.01,2013-05-31 00:13:00,
2013-05-30 17:14:00,54.2,46.8,30.10,SW,230,2.0,7.0,76,0.00,,,0.01,VWS V14.01,2013-05-31 00:14:00,
2013-05-30 17:17:00,54.2,47.2,30.10,SW,215,5.0,10.0,77,0.00,,,0.01,VWS V14.01,2013-05-31 00:17:00,
2013-05-30 17:18:00,54.2,47.2,30.10,SW,236,0.0,10.0,77,0.00,,,0.01,VWS V14.01,2013-05-31 00:18:00,
2013-05-30 17:21:00,54.2,47.8,30.10,WSW,240,0.0,10.0,79,0.00,,,0.01,VWS V14.01,2013-05-31 00:21:00,
2013-05-30 17:22:00,54.2,47.8,30.10,SSE,151,3.0,3.0,79,0.00,,,0.01,VWS V14.01,2013-05-31 00:22:00,
2013-05-30 17:23:00,54.2,47.8,30.10,SSE,151,0.0,3.0,79,0.00,,,0.01,VWS V14.01,2013-05-31 00:23:00,
2013-05-30 17:25:00,54.1,47.4,30.10,SE,141,0.0,6.0,78,0.00,,,0.01,VWS V14.01,2013-05-31 00:25:00,
2013-05-30 17:26:00,54.1,47.4,30.10,SE,141,0.0,6.0,78,0.00,,,0.01,VWS V14.01,2013-05-31 00:26:00,
2013-05-30 17:30:00,53.9,47.5,30.10,SW,233,0.0,4.0,79,0.00,,,0.01,VWS V14.01,2013-05-31 00:30:00,
2013-05-30 17:31:00,53.9,47.5,30.09,SW,233,2.0,4.0,79,0.00,,,0.01,VWS V14.01,2013-05-31 00:31:00,
2013-05-30 17:33:00,53.9,47.5,30.09,SSW,195,0.0,4.0,79,0.00,,,0.01,VWS V14.01,2013-05-31 00:33:00,
2013-05-30 17:34:00,53.8,47.5,30.09,SSW,195,0.0,4.0,79,0.00,,,0.01,VWS V14.01,2013-05-31 00:34:00,
2013-05-30 17:36:00,53.9,48.2,30.09,SSW,193,0.0,4.0,81,0.00,,,0.01,VWS V14.01,2013-05-31 00:36:00,
2013-05-30 17:38:00,53.9,47.9,30.09,SSW,192,0.0,1.0,80,0.00,,,0.01,VWS V14.01,2013-05-31 00:38:00,
2013-05-30 17:39:00,53.9,48.2,30.09,SSW,193,0.0,1.0,81,0.00,,,0.01,VWS V14.01,2013-05-31 00:39:00,
2013-05-30 17:40:00,53.9,48.2,30.09,SSW,193,1.0,1.0,81,0.00,,,0.01,VWS V14.01,2013-05-31 00:40:00,
2013-05-30 17:41:00,53.9,48.5,30.09,SSW,193,0.0,1.0,82,0.00,,,0.01,VWS V14.01,2013-05-31 00:41:00,
2013-05-30 17:42:00,54.1,48.7,30.09,SSW,193,0.0,0.0,82,0.00,,,0.01,VWS V14.01,2013-05-31 00:42:00,
2013-05-30 17:44:00,54.1,48.4,30.09,SSW,193,0.0,0.0,81,0.00,,,0.01,VWS V14.01,2013-05-31 00:44:00,
2013-05-30 17:46:00,54.1,48.4,30.09,SSW,193,0.0,1.0,81,0.00,,,0.01,VWS V14.01,2013-05-31 00:46:00,
2013-05-30 17:47:00,54.2,48.8,30.09,SSW,193,0.0,0.0,82,0.00,,,0.01,VWS V14.01,2013-05-31 00:47:00,
2013-05-30 17:49:00,54.2,48.8,30.09,SSW,192,1.0,2.0,82,0.00,,,0.01,VWS V14.01,2013-05-31 00:49:00,
2013-05-30 17:51:00,54.4,48.7,30.09,ESE,117,5.0,5.0,81,0.00,,,0.01,VWS V14.01,2013-05-31 00:51:00,
2013-05-30 17:55:00,54.4,48.7,30.09,ESE,110,2.0,5.0,81,0.00,,,0.01,VWS V14.01,2013-05-31 00:55:00,
2013-05-30 17:56:00,54.4,48.7,30.09,SE,133,5.0,5.0,81,0.00,,,0.01,VWS V14.01,2013-05-31 00:56:00,
2013-05-30 17:57:00,54.4,48.7,30.09,ESE,119,4.0,4.0,81,0.00,,,0.01,VWS V14.01,2013-05-31 00:57:00,
2013-05-30 17:58:00,54.4,48.7,30.09,ESE,114,3.0,4.0,81,0.00,,,0.01,VWS V14.01,2013-05-31 00:58:00,
2013-05-30 18:03:00,54.8,49.4,30.09,South,169,1.0,3.0,82,0.00,,BKN095,0.01,VWS V14.01,2013-05-31 01:03:00,
2013-05-30 18:04:00,54.8,49.4,30.09,South,172,0.0,3.0,82,0.00,,BKN095,0.01,VWS V14.01,2013-05-31 01:04:00,
2013-05-30 18:06:00,55.0,49.6,30.09,South,172,0.0,3.0,82,0.00,,BKN095,0.01,VWS V14.01,2013-05-31 01:06:00,
2013-05-30 18:08:00,55.1,49.4,30.09,South,172,0.0,2.0,81,0.00,,BKN095,0.01,VWS V14.01,2013-05-31 01:08:00,
2013-05-30 18:10:00,55.1,49.4,30.09,South,172,0.0,2.0,81,0.00,,BKN095,0.01,VWS V14.01,2013-05-31 01:10:00,
2013-05-30 18:11:00,55.3,49.6,30.09,SSE,158,0.0,2.0,81,0.00,,BKN095,0.01,VWS V14.01,2013-05-31 01:11:00,
2013-05-30 18:12:00,55.3,49.6,30.09,SSE,158,0.0,0.0,81,0.00,,BKN095,0.01,VWS V14.01,2013-05-31 01:12:00,
2013-05-30 18:13:00,55.3,49.6,30.09,SSE,158,0.0,0.0,81,0.00,,BKN095,0.01,VWS V14.01,2013-05-31 01:13:00,
2013-05-30 18:17:00,55.4,49.3,30.09,SSE,158,0.0,0.0,80,0.00,,BKN095,0.01,VWS V14.01,2013-05-31 01:17:00,
2013-05-30 18:18:00,55.4,49.3,30.09,SSE,158,0.0,0.0,80,0.00,,BKN095,0.01,VWS V14.01,2013-05-31 01:18:00,
2013-05-30 18:20:00,55.6,49.9,30.09,SSE,158,0.0,1.0,81,0.00,,BKN095,0.01,VWS V14.01,2013-05-31 01:20:00,
2013-05-30 18:21:00,55.6,49.5,30.09,SSE,158,0.0,1.0,80,0.00,,BKN095,0.01,VWS V14.01,2013-05-31 01:21:00,
2013-05-30 18:25:00,55.7,50.0,30.09,SSE,158,0.0,0.0,81,0.00,,BKN095,0.01,VWS V14.01,2013-05-31 01:25:00,
2013-05-30 18:26:00,55.7,50.0,30.09,SSE,158,0.0,0.0,81,0.00,,BKN095,0.01,VWS V14.01,2013-05-31 01:26:00,
2013-05-30 18:28:00,55.9,50.2,30.09,SSE,158,0.0,0.0,81,0.00,,BKN095,0.01,VWS V14.01,2013-05-31 01:28:00,
2013-05-30 18:29:00,55.9,50.2,30.09,SSE,158,0.0,0.0,81,0.00,,BKN095,0.01,VWS V14.01,2013-05-31 01:29:00,
2013-05-30 18:31:00,55.7,49.6,30.10,ESE,123,1.0,3.0,80,0.00,,BKN095,0.01,VWS V14.01,2013-05-31 01:31:00,
2013-05-30 18:33:00,55.7,49.6,30.10,ESE,123,0.0,0.0,80,0.00,,BKN095,0.01,VWS V14.01,2013-05-31 01:33:00,
2013-05-30 18:36:00,55.7,50.0,30.10,ESE,123,2.0,2.0,81,0.00,,BKN095,0.01,VWS V14.01,2013-05-31 01:36:00,
2013-05-30 18:38:00,55.7,50.0,30.10,ESE,123,0.0,2.0,81,0.00,,BKN095,0.01,VWS V14.01,2013-05-31 01:38:00,
2013-05-30 18:39:00,55.6,49.9,30.10,ESE,123,2.0,3.0,81,0.00,,BKN095,0.01,VWS V14.01,2013-05-31 01:39:00,
2013-05-30 18:41:00,55.6,49.9,30.10,ESE,123,0.0,3.0,81,0.00,,BKN095,0.01,VWS V14.01,2013-05-31 01:41:00,
2013-05-30 18:43:00,55.6,49.9,30.10,ESE,123,1.0,1.0,81,0.00,,BKN095,0.01,VWS V14.01,2013-05-31 01:43:00,
2013-05-30 18:46:00,55.4,49.7,30.10,ESE,123,0.0,2.0,81,0.00,,BKN095,0.01,VWS V14.01,2013-05-31 01:46:00,
2013-05-30 18:47:00,55.4,49.7,30.10,ESE,123,0.0,0.0,81,0.00,,BKN095,0.01,VWS V14.01,2013-05-31 01:47:00,
2013-05-30 18:48:00,55.4,50.0,30.10,ESE,123,0.0,0.0,82,0.00,,BKN095,0.01,VWS V14.01,2013-05-31 01:48:00,
2013-05-30 18:51:00,55.6,50.2,30.10,ESE,114,0.0,0.0,82,0.00,,BKN095,0.01,VWS V14.01,2013-05-31 01:51:00,
2013-05-30 18:52:00,55.6,50.2,30.10,ESE,114,0.0,0.0,82,0.00,,BKN095,0.01,VWS V14.01,2013-05-31 01:52:00,
2013-05-30 18:53:00,55.4,50.0,30.10,ESE,114,0.0,2.0,82,0.00,,BKN095,0.01,VWS V14.01,2013-05-31 01:53:00,
2013-05-30 18:56:00,55.4,50.0,30.10,ESE,116,0.0,2.0,82,0.00,,BKN095,0.01,VWS V14.01,2013-05-31 01:56:00,
2013-05-30 18:58:00,55.3,50.2,30.10,ESE,116,0.0,2.0,83,0.00,,BKN095,0.01,VWS V14.01,2013-05-31 01:58:00,
2013-05-30 18:59:00,55.3,50.2,30.10,ESE,116,0.0,2.0,83,0.00,,BKN095,0.01,VWS V14.01,2013-05-31 01:59:00,
2013-05-30 19:01:00,55.4,50.3,30.10,ESE,116,0.0,2.0,83,0.00,,OVC120,0.01,VWS V14.01,2013-05-31 02:01:00,
2013-05-30 19:02:00,55.4,50.3,30.10,ESE,116,0.0,0.0,83,0.00,,OVC120,0.01,VWS V14.01,2013-05-31 02:02:00,
2013-05-30 19:03:00,55.4,50.3,30.10,WSW,254,0.0,4.0,83,0.00,,OVC120,0.01,VWS V14.01,2013-05-31 02:03:00,
2013-05-30 19:05:00,55.3,49.9,30.10,WSW,254,0.0,4.0,82,0.00,,OVC120,0.01,VWS V14.01,2013-05-31 02:05:00,
2013-05-30 19:08:00,55.3,49.6,30.10,SSE,148,2.0,2.0,81,0.00,,OVC120,0.01,VWS V14.01,2013-05-31 02:08:00,
2013-05-30 19:10:00,55.3,49.6,30.10,SSE,148,0.0,2.0,81,0.00,,OVC120,0.01,VWS V14.01,2013-05-31 02:10:00,
2013-05-30 19:11:00,55.3,49.2,30.10,SSE,148,0.0,2.0,80,0.00,,OVC120,0.01,VWS V14.01,2013-05-31 02:11:00,
2013-05-30 19:15:00,55.3,49.2,30.10,SW,224,6.0,6.0,80,0.00,,OVC120,0.01,VWS V14.01,2013-05-31 02:15:00,
2013-05-30 19:16:00,55.3,49.2,30.11,WSW,243,1.0,8.0,80,0.00,,OVC120,0.01,VWS V14.01,2013-05-31 02:16:00,
2013-05-30 19:17:00,55.3,48.9,30.11,SSW,193,0.0,2.0,79,0.00,,OVC120,0.01,VWS V14.01,2013-05-31 02:17:00,
2013-05-30 19:21:00,55.0,48.3,30.11,West,268,1.0,5.0,78,0.00,,OVC120,0.01,VWS V14.01,2013-05-31 02:21:00,
2013-05-30 19:23:00,54.8,47.7,30.11,East,82,0.0,5.0,77,0.00,,OVC120,0.01,VWS V14.01,2013-05-31 02:23:00,
2013-05-30 19:27:00,54.8,47.7,30.11,SW,217,0.0,3.0,77,0.00,,OVC120,0.01,VWS V14.01,2013-05-31 02:27:00,
2013-05-30 19:28:00,54.7,48.0,30.11,SSW,199,5.0,6.0,78,0.00,,OVC120,0.01,VWS V14.01,2013-05-31 02:28:00,
2013-05-30 19:30:00,54.7,48.0,30.11,South,171,0.0,6.0,78,0.00,,OVC120,0.01,VWS V14.01,2013-05-31 02:30:00,
2013-05-30 19:33:00,54.5,48.1,30.11,WSW,239,2.0,4.0,79,0.00,,OVC120,0.01,VWS V14.01,2013-05-31 02:33:00,
2013-05-30 19:34:00,54.5,48.1,30.11,SE,133,1.0,5.0,79,0.00,,OVC120,0.01,VWS V14.01,2013-05-31 02:34:00,
2013-05-30 19:35:00,54.4,48.0,30.11,WSW,256,2.0,5.0,79,0.00,,OVC120,0.01,VWS V14.01,2013-05-31 02:35:00,
2013-05-30 19:36:00,54.4,48.0,30.11,WSW,256,0.0,5.0,79,0.00,,OVC120,0.01,VWS V14.01,2013-05-31 02:36:00,
2013-05-30 19:39:00,54.2,47.8,30.11,WSW,243,2.0,7.0,79,0.00,,OVC120,0.01,VWS V14.01,2013-05-31 02:39:00,
2013-05-30 19:42:00,54.1,48.1,30.11,WSW,243,0.0,0.0,80,0.00,,OVC120,0.01,VWS V14.01,2013-05-31 02:42:00,
2013-05-30 19:44:00,54.1,48.4,30.11,WSW,243,1.0,2.0,81,0.00,,OVC120,0.01,VWS V14.01,2013-05-31 02:44:00,
2013-05-30 19:45:00,54.1,48.7,30.12,WSW,243,0.0,2.0,82,0.00,,OVC120,0.01,VWS V14.01,2013-05-31 02:45:00,
2013-05-30 19:47:00,54.1,48.7,30.12,SSE,147,2.0,2.0,82,0.00,,OVC120,0.01,VWS V14.01,2013-05-31 02:47:00,
2013-05-30 19:49:00,53.9,48.5,30.12,SSE,147,0.0,2.0,82,0.00,,OVC120,0.01,VWS V14.01,2013-05-31 02:49:00,
2013-05-30 19:50:00,53.9,48.5,30.12,SSE,147,0.0,2.0,82,0.00,,OVC120,0.01,VWS V14.01,2013-05-31 02:50:00,
2013-05-30 19:51:00,53.9,48.5,30.12,SSE,147,0.0,2.0,82,0.00,,OVC120,0.01,VWS V14.01,2013-05-31 02:51:00,
2013-05-30 19:55:00,53.8,48.8,30.12,SSE,147,0.0,2.0,83,0.00,,OVC120,0.01,VWS V14.01,2013-05-31 02:55:00,
2013-05-30 19:56:00,53.8,48.8,30.12,SSE,147,0.0,0.0,83,0.00,,OVC120,0.01,VWS V14.01,2013-05-31 02:56:00,
2013-05-30 19:57:00,53.8,49.1,30.12,SSE,147,0.0,0.0,84,0.00,,OVC120,0.01,VWS V14.01,2013-05-31 02:57:00,
2013-05-30 19:58:00,53.8,49.1,30.12,SSE,147,0.0,0.0,84,0.00,,OVC120,0.01,VWS V14.01,2013-05-31 02:58:00,
2013-05-30 20:00:00,53.8,49.1,30.13,SSE,147,1.0,1.0,84,0.00,,OVC120,0.01,VWS V14.01,2013-05-31 03:00:00,
2013-05-30 20:02:00,53.6,48.9,30.13,SSE,147,2.0,2.0,84,0.00,,OVC100,0.01,VWS V14.01,2013-05-31 03:02:00,
2013-05-30 20:03:00,53.5,48.8,30.13,SSE,147,2.0,2.0,84,0.00,,OVC100,0.01,VWS V14.01,2013-05-31 03:03:00,
2013-05-30 20:05:00,53.3,48.6,30.13,ESE,120,2.0,5.0,84,0.00,,OVC100,0.01,VWS V14.01,2013-05-31 03:05:00,
2013-05-30 20:06:00,53.3,48.6,30.13,ESE,120,0.0,1.0,84,0.00,,OVC100,0.01,VWS V14.01,2013-05-31 03:06:00,
2013-05-30 20:09:00,53.2,48.8,30.13,ESE,120,0.0,2.0,85,0.00,,OVC100,0.01,VWS V14.01,2013-05-31 03:09:00,
2013-05-30 20:11:00,53.1,48.7,30.13,ESE,120,0.0,0.0,85,0.00,,OVC100,0.01,VWS V14.01,2013-05-31 03:11:00,
2013-05-30 20:13:00,53.1,48.7,30.13,ESE,120,3.0,3.0,85,0.00,,OVC100,0.01,VWS V14.01,2013-05-31 03:13:00,
2013-05-30 20:16:00,52.9,48.5,30.13,ESE,120,0.0,3.0,85,0.00,,OVC100,0.01,VWS V14.01,2013-05-31 03:16:00,
2013-05-30 20:20:00,52.8,48.4,30.13,ESE,121,1.0,2.0,85,0.00,,OVC100,0.01,VWS V14.01,2013-05-31 03:20:00,
2013-05-30 20:21:00,52.8,48.7,30.13,ESE,121,0.0,2.0,86,0.00,,OVC100,0.01,VWS V14.01,2013-05-31 03:21:00,
2013-05-30 20:22:00,52.6,48.5,30.13,ESE,121,0.0,0.0,86,0.00,,OVC100,0.01,VWS V14.01,2013-05-31 03:22:00,
2013-05-30 20:23:00,52.6,48.5,30.13,ESE,121,3.0,3.0,86,0.00,,OVC100,0.01,VWS V14.01,2013-05-31 03:23:00,
2013-05-30 20:25:00,52.6,48.5,30.13,South,191,0.0,3.0,86,0.00,,OVC100,0.01,VWS V14.01,2013-05-31 03:25:00,
2013-05-30 20:26:00,52.5,48.4,30.13,South,191,0.0,3.0,86,0.00,,OVC100,0.01,VWS V14.01,2013-05-31 03:26:00,
2013-05-30 20:27:00,52.5,48.4,30.13,South,189,2.0,2.0,86,0.00,,OVC100,0.01,VWS V14.01,2013-05-31 03:27:00,
2013-05-30 20:29:00,52.3,48.2,30.13,SE,140,0.0,3.0,86,0.00,,OVC100,0.01,VWS V14.01,2013-05-31 03:29:00,
2013-05-30 20:31:00,52.3,48.5,30.13,SE,140,0.0,0.0,87,0.00,,OVC100,0.01,VWS V14.01,2013-05-31 03:31:00,
2013-05-30 20:33:00,52.2,48.5,30.13,SE,140,0.0,2.0,87,0.00,,OVC100,0.01,VWS V14.01,2013-05-31 03:33:00,
2013-05-30 20:34:00,52.2,48.5,30.13,SE,140,2.0,2.0,87,0.00,,OVC100,0.01,VWS V14.01,2013-05-31 03:34:00,
2013-05-30 20:36:00,52.2,48.5,30.13,SE,140,0.0,2.0,87,0.00,,OVC100,0.01,VWS V14.01,2013-05-31 03:36:00,
2013-05-30 20:40:00,52.0,48.3,30.13,SE,127,1.0,3.0,87,0.00,,OVC100,0.01,VWS V14.01,2013-05-31 03:40:00,
2013-05-30 20:41:00,52.0,48.3,30.13,SE,127,1.0,3.0,87,0.00,,OVC100,0.01,VWS V14.01,2013-05-31 03:41:00,
2013-05-30 20:42:00,51.9,48.2,30.13,ESE,112,3.0,3.0,87,0.00,,OVC100,0.01,VWS V14.01,2013-05-31 03:42:00,
2013-05-30 20:44:00,51.9,48.5,30.13,ESE,123,3.0,3.0,88,0.00,,OVC100,0.01,VWS V14.01,2013-05-31 03:44:00,
2013-05-30 20:45:00,51.9,48.5,30.13,ESE,123,1.0,3.0,88,0.00,,OVC100,0.01,VWS V14.01,2013-05-31 03:45:00,
2013-05-30 20:47:00,51.7,48.3,30.13,ESE,123,0.0,1.0,88,0.00,,OVC100,0.01,VWS V14.01,2013-05-31 03:47:00,
2013-05-30 20:48:00,51.7,48.3,30.13,SE,127,1.0,3.0,88,0.00,,OVC100,0.01,VWS V14.01,2013-05-31 03:48:00,
2013-05-30 20:50:00,51.7,48.3,30.13,SE,127,1.0,3.0,88,0.00,,OVC100,0.01,VWS V14.01,2013-05-31 03:50:00,
2013-05-30 20:53:00,51.7,48.3,30.13,SE,127,0.0,0.0,88,0.00,,OVC100,0.01,VWS V14.01,2013-05-31 03:53:00,
2013-05-30 20:54:00,51.7,48.3,30.13,SE,127,0.0,2.0,88,0.00,,OVC100,0.01,VWS V14.01,2013-05-31 03:54:00,
2013-05-30 20:55:00,51.7,48.3,30.13,SE,127,0.0,2.0,88,0.00,,OVC100,0.01,VWS V14.01,2013-05-31 03:55:00,
2013-05-30 20:56:00,51.7,48.6,30.13,SE,127,0.0,2.0,89,0.00,,OVC100,0.01,VWS V14.01,2013-05-31 03:56:00,
2013-05-30 20:58:00,51.7,48.6,30.13,SE,127,0.0,1.0,89,0.00,,OVC100,0.01,VWS V14.01,2013-05-31 03:58:00,
2013-05-30 21:00:00,51.6,48.5,30.14,SE,127,0.0,2.0,89,0.00,,OVC100,0.01,VWS V14.01,2013-05-31 04:00:00,
2013-05-30 21:01:00,51.6,48.5,30.14,SE,127,0.0,2.0,89,0.00,,OVC100,0.01,VWS V14.01,2013-05-31 04:01:00,
2013-05-30 21:02:00,51.6,48.5,30.14,SE,127,1.0,2.0,89,0.00,,OVC100,0.01,VWS V14.01,2013-05-31 04:02:00,
2013-05-30 21:06:00,51.6,48.5,30.14,SE,127,1.0,2.0,89,0.01,,OVC100,0.02,VWS V14.01,2013-05-31 04:06:00,
2013-05-30 21:09:00,51.4,48.6,30.14,ESE,106,3.0,3.0,90,0.01,,OVC100,0.02,VWS V14.01,2013-05-31 04:09:00,
2013-05-30 21:11:00,51.4,48.6,30.14,ESE,117,3.0,3.0,90,0.01,,OVC100,0.02,VWS V14.01,2013-05-31 04:11:00,
2013-05-30 21:12:00,51.3,48.5,30.14,ESE,107,3.0,6.0,90,0.01,,OVC100,0.02,VWS V14.01,2013-05-31 04:12:00,
2013-05-30 21:14:00,51.3,48.5,30.14,ESE,107,1.0,6.0,90,0.01,,OVC100,0.02,VWS V14.01,2013-05-31 04:14:00,
2013-05-30 21:16:00,51.1,48.3,30.14,East,82,2.0,3.0,90,0.01,,OVC100,0.02,VWS V14.01,2013-05-31 04:16:00,
2013-05-30 21:17:00,51.1,48.3,30.14,SE,141,2.0,5.0,90,0.01,,OVC100,0.02,VWS V14.01,2013-05-31 04:17:00,
2013-05-30 21:19:00,51.1,48.6,30.14,ESE,110,4.0,7.0,91,0.01,,OVC100,0.02,VWS V14.01,2013-05-31 04:19:00,
2013-05-30 21:21:00,51.0,48.5,30.14,ESE,117,4.0,7.0,91,0.01,,OVC100,0.02,VWS V14.01,2013-05-31 04:21:00,
2013-05-30 21:22:00,51.0,48.5,30.14,ESE,116,3.0,5.0,91,0.01,,OVC100,0.02,VWS V14.01,2013-05-31 04:22:00,
2013-05-30 21:23:00,51.0,48.5,30.14,SE,138,1.0,5.0,91,0.01,,OVC100,0.02,VWS V14.01,2013-05-31 04:23:00,
2013-05-30 21:26:00,50.8,48.3,30.14,ESE,104,0.0,2.0,91,0.01,,OVC100,0.02,VWS V14.01,2013-05-31 04:26:00,
2013-05-30 21:27:00,50.8,48.3,30.14,ESE,106,0.0,2.0,91,0.01,,OVC100,0.02,VWS V14.01,2013-05-31 04:27:00,
2013-05-30 21:28:00,50.8,48.3,30.14,ESE,116,0.0,2.0,91,0.01,,OVC100,0.02,VWS V14.01,2013-05-31 04:28:00,
2013-05-30 21:29:00,50.8,48.3,30.14,East,85,0.0,2.0,91,0.01,,OVC100,0.02,VWS V14.01,2013-05-31 04:29:00,
2013-05-30 21:31:00,50.8,48.6,30.14,ESE,117,2.0,3.0,92,0.01,,OVC100,0.02,VWS V14.01,2013-05-31 04:31:00,
2013-05-30 21:33:00,50.8,48.6,30.14,East,96,0.0,4.0,92,0.01,,OVC100,0.02,VWS V14.01,2013-05-31 04:33:00,
2013-05-30 21:34:00,50.7,48.5,30.14,East,96,0.0,4.0,92,0.01,,OVC100,0.02,VWS V14.01,2013-05-31 04:34:00,
2013-05-30 21:36:00,50.7,48.5,30.14,ESE,106,2.0,3.0,92,0.01,,OVC100,0.02,VWS V14.01,2013-05-31 04:36:00,
2013-05-30 21:38:00,50.7,48.5,30.14,East,96,1.0,3.0,92,0.01,,OVC100,0.02,VWS V14.01,2013-05-31 04:38:00,
2013-05-30 21:40:00,50.7,48.5,30.14,East,100,0.0,4.0,92,0.01,,OVC100,0.02,VWS V14.01,2013-05-31 04:40:00,
2013-05-30 21:41:00,50.7,48.5,30.14,East,100,3.0,4.0,92,0.01,,OVC100,0.02,VWS V14.01,2013-05-31 04:41:00,
2013-05-30 21:45:00,50.5,48.6,30.15,ESE,114,0.0,5.0,93,0.01,,OVC100,0.02,VWS V14.01,2013-05-31 04:45:00,
2013-05-30 21:46:00,50.5,48.6,30.15,ESE,106,3.0,5.0,93,0.01,,OVC100,0.02,VWS V14.01,2013-05-31 04:46:00,
2013-05-30 21:48:00,50.5,48.6,30.15,ESE,106,3.0,3.0,93,0.01,,OVC100,0.02,VWS V14.01,2013-05-31 04:48:00,
2013-05-30 21:51:00,50.5,48.6,30.15,ESE,106,1.0,3.0,93,0.01,,OVC100,0.02,VWS V14.01,2013-05-31 04:51:00,
2013-05-30 21:52:00,50.5,48.6,30.15,ESE,106,0.0,3.0,93,0.01,,OVC100,0.02,VWS V14.01,2013-05-31 04:52:00,
2013-05-30 21:53:00,50.5,48.6,30.15,ESE,106,2.0,3.0,93,0.01,,OVC100,0.02,VWS V14.01,2013-05-31 04:53:00,
2013-05-30 21:54:00,50.4,48.5,30.15,ESE,106,3.0,3.0,93,0.01,,OVC100,0.02,VWS V14.01,2013-05-31 04:54:00,
2013-05-30 21:55:00,50.4,48.5,30.15,ESE,102,3.0,5.0,93,0.01,,OVC100,0.02,VWS V14.01,2013-05-31 04:55:00,
2013-05-30 21:59:00,50.4,48.5,30.15,ESE,121,3.0,6.0,93,0.01,,OVC100,0.02,VWS V14.01,2013-05-31 04:59:00,
2013-05-30 22:00:00,50.4,48.5,30.15,East,93,3.0,6.0,93,0.01,,OVC085,0.02,VWS V14.01,2013-05-31 05:00:00,
2013-05-30 22:02:00,50.4,48.5,30.15,ESE,106,5.0,5.0,93,0.01,,OVC085,0.02,VWS V14.01,2013-05-31 05:02:00,
2013-05-30 22:05:00,50.2,48.5,30.15,ESE,116,2.0,7.0,94,0.01,,OVC085,0.02,VWS V14.01,2013-05-31 05:05:00,
2013-05-30 22:07:00,50.2,48.5,30.15,ESE,123,0.0,4.0,94,0.00,,OVC085,0.02,VWS V14.01,2013-05-31 05:07:00,
2013-05-30 22:09:00,50.2,48.5,30.15,ESE,123,3.0,4.0,94,0.00,,OVC085,0.02,VWS V14.01,2013-05-31 05:09:00,
2013-05-30 22:12:00,50.2,48.5,30.15,SE,128,3.0,4.0,94,0.00,,OVC085,0.02,VWS V14.01,2013-05-31 05:12:00,
2013-05-30 22:15:00,50.1,48.4,30.16,ESE,121,0.0,7.0,94,0.00,,OVC085,0.02,VWS V14.01,2013-05-31 05:15:00,
2013-05-30 22:16:00,50.1,48.4,30.16,ESE,120,0.0,7.0,94,0.00,,OVC085,0.02,VWS V14.01,2013-05-31 05:16:00,
2013-05-30 22:21:00,50.1,48.4,30.16,ESE,119,2.0,2.0,94,0.00,,OVC085,0.02,VWS V14.01,2013-05-31 05:21:00,
2013-05-30 22:22:00,50.1,48.4,30.16,ESE,116,2.0,2.0,94,0.00,,OVC085,0.02,VWS V14.01,2013-05-31 05:22:00,
2013-05-30 22:23:00,50.1,48.4,30.16,ESE,116,0.0,2.0,94,0.00,,OVC085,0.02,VWS V14.01,2013-05-31 05:23:00,
2013-05-30 22:26:00,50.1,48.4,30.16,ESE,116,0.0,0.0,94,0.00,,OVC085,0.02,VWS V14.01,2013-05-31 05:26:00,
2013-05-30 22:27:00,50.1,48.4,30.16,ESE,116,0.0,0.0,94,0.00,,OVC085,0.02,VWS V14.01,2013-05-31 05:27:00,
2013-05-30 22:30:00,49.9,48.2,30.16,ESE,116,0.0,0.0,94,0.00,,OVC085,0.02,VWS V14.01,2013-05-31 05:30:00,
2013-05-30 22:31:00,49.9,48.2,30.16,ESE,116,0.0,0.0,94,0.00,,OVC085,0.02,VWS V14.01,2013-05-31 05:31:00,
2013-05-30 22:33:00,49.9,48.2,30.16,ESE,116,0.0,3.0,94,0.00,,OVC085,0.02,VWS V14.01,2013-05-31 05:33:00,
2013-05-30 22:36:00,49.9,48.2,30.16,ESE,116,0.0,3.0,94,0.00,,OVC085,0.02,VWS V14.01,2013-05-31 05:36:00,
2013-05-30 22:37:00,49.9,48.2,30.16,ESE,116,0.0,0.0,94,0.00,,OVC085,0.02,VWS V14.01,2013-05-31 05:37:00,
2013-05-30 22:41:00,49.8,48.2,30.16,ESE,114,2.0,3.0,94,0.00,,OVC085,0.02,VWS V14.01,2013-05-31 05:41:00,
2013-05-30 22:43:00,49.8,48.2,30.16,ESE,114,2.0,2.0,94,0.00,,OVC085,0.02,VWS V14.01,2013-05-31 05:43:00,
2013-05-30 22:44:00,49.8,48.2,30.16,ESE,114,1.0,2.0,94,0.00,,OVC085,0.02,VWS V14.01,2013-05-31 05:44:00,
2013-05-30 22:46:00,49.8,48.2,30.16,ESE,114,2.0,3.0,94,0.00,,OVC085,0.02,VWS V14.01,2013-05-31 05:46:00,
2013-05-30 22:48:00,49.8,48.2,30.16,ESE,114,2.0,3.0,94,0.00,,OVC085,0.02,VWS V14.01,2013-05-31 05:48:00,
2013-05-30 22:52:00,49.6,48.2,30.16,ESE,114,0.0,0.0,95,0.00,,OVC085,0.02,VWS V14.01,2013-05-31 05:52:00,
2013-05-30 22:53:00,49.6,48.2,30.16,ESE,114,0.0,0.0,95,0.00,,OVC085,0.02,VWS V14.01,2013-05-31 05:53:00,
2013-05-30 22:54:00,49.6,48.2,30.16,ESE,114,2.0,3.0,95,0.00,,OVC085,0.02,VWS V14.01,2013-05-31 05:54:00,
2013-05-30 22:55:00,49.6,48.2,30.16,ESE,114,2.0,3.0,95,0.00,,OVC085,0.02,VWS V14.01,2013-05-31 05:55:00,
2013-05-30 22:57:00,49.5,48.1,30.16,ESE,114,0.0,0.0,95,0.00,,OVC085,0.02,VWS V14.01,2013-05-31 05:57:00,
2013-05-30 22:58:00,49.5,48.1,30.16,ESE,114,0.0,0.0,95,0.00,,OVC085,0.02,VWS V14.01,2013-05-31 05:58:00,
2013-05-30 22:59:00,49.5,48.1,30.16,ESE,114,0.0,0.0,95,0.00,,OVC085,0.02,VWS V14.01,2013-05-31 05:59:00,
2013-05-30 23:01:00,49.5,48.1,30.17,ESE,114,0.0,0.0,95,0.00,,OVC100,0.02,VWS V14.01,2013-05-31 06:01:00,
2013-05-30 23:02:00,49.5,48.1,30.17,ESE,114,0.0,0.0,95,0.00,,OVC100,0.02,VWS V14.01,2013-05-31 06:02:00,
2013-05-30 23:04:00,49.4,48.0,30.17,ESE,114,2.0,3.0,95,0.00,,OVC100,0.02,VWS V14.01,2013-05-31 06:04:00,
2013-05-30 23:05:00,49.4,48.0,30.17,ESE,114,2.0,3.0,95,0.00,,OVC100,0.02,VWS V14.01,2013-05-31 06:05:00,
2013-05-30 23:10:00,49.4,48.0,30.17,ESE,114,2.0,2.0,95,0.00,,OVC100,0.02,VWS V14.01,2013-05-31 06:10:00,
2013-05-30 23:11:00,49.4,48.0,30.17,ESE,114,1.0,2.0,95,0.00,,OVC100,0.02,VWS V14.01,2013-05-31 06:11:00,
2013-05-30 23:14:00,49.2,47.8,30.17,ESE,114,0.0,3.0,95,0.00,,OVC100,0.02,VWS V14.01,2013-05-31 06:14:00,
2013-05-30 23:15:00,49.2,47.8,30.17,ESE,114,2.0,3.0,95,0.00,,OVC100,0.02,VWS V14.01,2013-05-31 06:15:00,
2013-05-30 23:16:00,49.2,47.8,30.17,ESE,114,1.0,3.0,95,0.00,,OVC100,0.02,VWS V14.01,2013-05-31 06:16:00,
2013-05-30 23:17:00,49.2,47.8,30.17,ESE,114,2.0,2.0,95,0.00,,OVC100,0.02,VWS V14.01,2013-05-31 06:17:00,
2013-05-30 23:19:00,49.2,47.8,30.17,ESE,114,1.0,2.0,95,0.00,,OVC100,0.02,VWS V14.01,2013-05-31 06:19:00,
2013-05-30 23:20:00,49.1,47.7,30.17,ESE,114,0.0,2.0,95,0.00,,OVC100,0.02,VWS V14.01,2013-05-31 06:20:00,
2013-05-30 23:23:00,49.1,47.7,30.17,ESE,114,0.0,0.0,95,0.00,,OVC100,0.02,VWS V14.01,2013-05-31 06:23:00,
2013-05-30 23:25:00,49.1,47.7,30.17,ESE,114,0.0,1.0,95,0.00,,OVC100,0.02,VWS V14.01,2013-05-31 06:25:00,
2013-05-30 23:26:00,49.1,47.7,30.17,ESE,114,0.0,1.0,95,0.00,,OVC100,0.02,VWS V14.01,2013-05-31 06:26:00,
2013-05-30 23:28:00,48.9,47.5,30.17,ESE,114,0.0,2.0,95,0.00,,OVC100,0.02,VWS V14.01,2013-05-31 06:28:00,
2013-05-30 23:32:00,48.9,47.5,30.17,ESE,114,1.0,2.0,95,0.00,,OVC100,0.02,VWS V14.01,2013-05-31 06:32:00,
2013-05-30 23:33:00,48.9,47.5,30.17,ESE,114,1.0,2.0,95,0.00,,OVC100,0.02,VWS V14.01,2013-05-31 06:33:00,
2013-05-30 23:36:00,48.9,47.5,30.17,ESE,114,2.0,2.0,95,0.00,,OVC100,0.02,VWS V14.01,2013-05-31 06:36:00,
2013-05-30 23:38:00,48.8,47.4,30.17,ESE,114,2.0,3.0,95,0.00,,OVC100,0.02,VWS V14.01,2013-05-31 06:38:00,
2013-05-30 23:39:00,48.8,47.4,30.17,ESE,114,1.0,3.0,95,0.00,,OVC100,0.02,VWS V14.01,2013-05-31 06:39:00,
2013-05-30 23:41:00,48.8,47.4,30.17,ESE,114,1.0,3.0,95,0.00,,OVC100,0.02,VWS V14.01,2013-05-31 06:41:00,
2013-05-30 23:44:00,48.8,47.4,30.17,ESE,114,1.0,2.0,95,0.00,,OVC100,0.02,VWS V14.01,2013-05-31 06:44:00,
2013-05-30 23:45:00,48.8,47.4,30.17,ESE,114,1.0,2.0,95,0.00,,OVC100,0.02,VWS V14.01,2013-05-31 06:45:00,
2013-05-30 23:46:00,48.8,47.4,30.17,ESE,114,0.0,2.0,95,0.00,,OVC100,0.02,VWS V14.01,2013-05-31 06:46:00,
2013-05-30 23:48:00,48.8,47.4,30.17,ESE,114,0.0,2.0,95,0.00,,OVC100,0.02,VWS V14.01,2013-05-31 06:48:00,
2013-05-30 23:50:00,48.8,47.4,30.17,ESE,114,0.0,2.0,95,0.00,,OVC100,0.02,VWS V14.01,2013-05-31 06:50:00,
2013-05-30 23:51:00,48.8,47.4,30.17,ESE,114,1.0,2.0,95,0.00,,OVC100,0.02,VWS V14.01,2013-05-31 06:51:00,
2013-05-30 23:52:00,48.8,47.4,30.17,ESE,114,1.0,3.0,95,0.00,,OVC100,0.02,VWS V14.01,2013-05-31 06:52:00,
2013-05-30 23:56:00,48.8,47.4,30.17,ESE,114,1.0,3.0,95,0.00,,OVC100,0.02,VWS V14.01,2013-05-31 06:56:00,
2013-05-30 23:59:00,48.8,47.4,30.17,East,83,4.0,4.0,95,0.00,,OVC100,0.02,VWS V14.01,2013-05-31 06:59:00,